GFSGBSN_925_spd_036.txt.gz
Wind_Speed
17 18 16 17 21 17 15 17 19 17 14 14 13 13 14 15 16 18 18 22 22 20 18 16 16 17 5 2 8 7 8 7 13 8 5 2 1 1 3 3 4 5 9 4 12 9 9
20 20 21 20 19 20 19 18 17 19 17 16 14 14 14 14 16 18 18 20 21 19 15 14 15 11 2 3 4 2 2 9 9 11 5 7 5 4 6 4 1 6 11 10 11 8 20
23 23 22 21 18 16 19 22 18 18 18 18 15 15 14 15 16 18 18 20 20 18 14 12 12 6 3 12 6 1 4 4 8 10 3 9 8 3 3 6 5 8 5 10 1 5 5
26 26 24 24 22 18 17 18 20 18 17 19 17 15 15 15 16 18 19 21 19 16 11 9 7 3 7 7 13 17 14 16 11 9 13 14 7 3 1 3 7 6 5 3 7 8 4
27 27 28 27 24 21 20 18 18 21 17 19 18 15 15 15 16 17 19 20 19 13 9 5 3 1 9 11 8 14 14 8 15 14 16 11 5 2 6 3 5 6 1 2 6 7 6
30 28 27 28 28 25 23 21 20 19 19 18 19 17 15 14 15 17 19 19 14 10 2 0 5 5 8 3 7 10 14 9 3 4 2 5 4 3 4 4 2 3 3 2 3 4 2
34 32 29 27 28 28 26 22 21 18 19 19 19 18 14 13 14 16 19 6 2 1 3 8 5 5 5 7 12 12 9 10 3 7 3 2 5 2 5 5 6 3 3 9 7 5 6
39 35 33 30 29 28 26 24 21 19 18 18 19 17 14 12 13 14 13 1 4 1 7 17 18 12 23 7 5 7 15 5 4 4 1 4 2 3 6 1 2 8 7 8 8 7 9
43 41 37 33 32 28 28 26 23 21 18 18 17 17 13 11 11 12 8 10 9 14 3 7 8 6 6 11 7 8 8 5 6 4 4 5 6 1 3 2 5 4 6 4 5 6 3
45 45 42 38 33 31 28 27 23 23 20 17 17 16 13 10 6 4 6 9 14 9 2 7 6 7 6 6 4 9 12 6 2 8 5 4 3 3 3 2 1 7 13 8 7 2 1
45 46 45 41 37 32 30 30 27 24 22 19 17 16 17 14 2 4 1 17 4 4 3 4 5 5 9 8 3 4 12 4 8 7 5 6 6 3 3 5 4 10 4 4 5 2 4
42 47 46 42 40 37 33 29 27 25 22 20 19 19 18 15 16 15 19 16 4 3 7 4 7 7 7 6 4 2 4 4 6 5 2 1 2 4 6 5 4 3 4 5 4 3 1
49 42 46 44 41 36 36 34 30 27 25 21 21 21 24 18 4 5 8 0 3 5 5 5 6 7 8 6 5 5 4 4 6 3 3 1 4 2 2 5 4 4 5 4 4 4 5
48 52 49 46 43 37 34 33 33 30 26 22 21 19 27 25 20 8 3 2 9 8 8 4 7 10 9 7 8 6 4 6 3 5 3 4 3 1 2 4 3 4 5 5 4 3 4
49 53 53 48 43 41 35 32 30 33 28 23 19 19 16 30 23 8 0 11 7 7 5 4 4 8 6 7 7 7 9 8 9 8 7 4 2 4 4 4 4 6 3 4 7 3 3
49 50 50 49 41 40 39 34 32 35 30 25 21 11 10 24 20 8 6 17 7 10 6 4 6 7 8 8 7 8 7 6 6 10 7 7 3 4 6 2 3 7 3 3 3 3 2
49 51 45 47 43 37 38 41 34 37 32 28 17 5 16 24 20 3 13 16 14 22 7 4 3 5 8 8 9 7 10 7 9 2 8 6 4 4 1 5 7 1 1 1 4 5 4
50 49 48 45 45 39 35 39 29 37 36 32 8 8 28 35 7 4 15 16 8 21 4 5 4 7 9 10 8 9 10 9 7 11 10 7 5 4 11 3 2 4 7 6 5 4 1
51 50 50 46 43 41 37 32 39 36 43 30 6 5 24 30 10 14 7 20 20 9 6 5 5 6 3 7 5 5 4 1 1 6 9 8 2 2 5 7 4 5 6 4 5 4 5
51 50 50 47 45 42 43 38 39 37 46 35 4 8 7 8 6 19 19 15 21 11 20 12 11 6 8 4 5 7 5 2 4 4 3 8 5 7 7 6 4 3 3 2 5 4 5
52 50 48 49 45 44 40 39 42 42 47 40 5 8 9 15 17 12 20 15 21 15 11 9 10 16 12 5 6 3 5 4 4 3 1 4 5 4 4 3 2 3 4 5 5 5 6
51 49 50 48 47 43 38 39 41 45 42 29 7 4 7 4 15 20 17 22 27 19 11 17 14 13 8 7 8 7 8 3 5 2 3 2 3 2 2 3 2 2 4 4 5 3 6
50 49 47 46 43 42 42 40 44 45 46 10 18 5 3 13 17 17 23 22 26 19 11 24 11 14 8 10 7 6 6 10 10 9 6 6 6 3 4 4 3 5 7 7 5 3 5
48 47 46 44 42 43 44 38 46 45 52 11 21 2 4 9 13 19 22 19 28 20 19 10 20 13 6 7 5 9 12 10 10 6 5 6 5 2 3 3 2 7 4 4 9 6 6
45 45 44 43 44 44 41 42 51 44 50 24 16 5 3 8 14 11 23 23 18 17 17 22 12 6 12 5 4 6 5 6 4 7 5 4 5 3 4 3 5 7 4 6 6 0 1
42 42 41 42 42 42 41 44 48 41 45 42 24 12 3 2 9 16 16 20 18 10 14 9 1 2 1 3 3 6 5 6 5 4 6 7 5 4 3 4 7 7 3 5 5 1 5
38 37 35 37 36 40 40 43 44 44 43 41 19 19 1 3 4 17 13 17 5 8 4 3 5 3 2 3 3 3 3 7 6 9 5 3 3 5 2 3 7 8 6 3 6 6 6
32 31 27 32 36 42 40 45 46 44 42 38 29 14 7 3 5 5 4 7 13 14 7 4 4 3 2 3 4 4 3 6 4 7 7 7 6 3 3 3 7 6 4 7 6 3 7
25 21 18 24 36 42 43 47 45 41 43 39 10 24 11 2 4 15 25 28 15 14 6 3 5 6 5 3 1 3 2 2 4 2 3 1 7 6 8 6 4 4 3 5 6 7 4

GFSGBSN_925_spd_039.txt.gz
Wind_Speed
21 21 21 19 20 21 21 19 18 19 18 16 14 14 14 14 15 16 18 18 18 20 20 17 16 15 5 4 8 7 8 5 11 10 4 3 3 2 1 4 3 5 3 3 9 8 8
22 23 23 22 22 21 21 22 20 18 19 18 16 15 14 15 15 17 18 19 19 19 19 15 13 9 2 3 4 2 4 7 6 8 6 5 5 5 3 4 3 2 6 3 4 6 4
25 24 25 24 23 22 21 19 20 20 18 19 19 17 16 15 15 17 18 20 20 18 17 12 9 6 0 12 3 1 3 3 5 9 5 6 3 1 2 6 4 3 5 2 3 3 2
28 27 25 26 25 23 22 19 18 20 20 20 17 16 17 15 15 18 19 20 20 18 14 8 4 2 7 5 6 17 13 13 14 11 10 7 6 4 2 5 7 5 4 3 1 3 4
31 29 28 26 26 25 23 22 19 19 20 19 18 17 18 15 15 17 20 21 22 17 8 4 1 1 9 10 9 12 13 6 8 12 8 10 1 2 5 2 4 6 2 2 5 4 3
36 32 30 29 27 26 26 23 23 22 20 20 17 16 18 16 14 16 20 22 15 6 1 1 1 4 7 3 2 7 10 11 3 2 2 4 5 3 4 3 2 1 3 3 3 5 5
39 38 33 32 28 26 25 26 24 23 21 18 18 18 17 15 14 15 17 8 3 1 3 8 4 4 5 12 7 4 7 8 3 6 0 4 4 3 7 5 3 1 2 3 5 4 3
40 41 38 36 32 29 27 25 24 22 21 19 18 18 16 15 13 13 12 2 2 2 7 12 15 8 16 5 5 5 11 6 4 5 1 4 3 7 4 3 5 3 3 4 5 3 7
43 39 42 39 38 33 29 28 25 23 21 19 17 16 16 14 11 11 6 7 13 8 4 7 6 6 5 12 7 6 7 4 4 6 5 5 4 3 2 0 1 2 1 3 5 6 1
41 40 42 43 41 39 32 29 28 25 22 20 18 16 16 12 6 5 4 2 17 11 2 6 5 7 7 7 4 11 10 6 2 9 5 5 3 4 4 1 3 2 3 3 4 1 3
46 45 43 44 43 42 38 32 30 24 23 21 19 16 17 17 4 4 4 12 3 1 3 3 4 3 8 10 3 6 11 4 8 5 5 5 6 5 4 5 5 6 1 4 3 4 2
49 45 43 42 43 43 41 36 32 29 25 21 21 18 16 19 17 13 9 11 5 4 6 4 7 6 6 6 3 3 6 3 3 5 2 5 2 2 4 1 5 3 1 5 4 3 1
51 49 46 43 40 43 42 39 35 29 25 22 21 19 20 19 5 10 5 2 3 4 4 4 6 6 7 6 5 4 5 5 6 4 3 2 3 2 1 1 4 4 5 3 4 4 4
53 51 47 44 45 44 42 41 36 32 26 22 20 18 20 23 14 5 2 3 10 7 7 5 3 4 8 6 6 6 5 5 4 3 4 5 5 6 3 4 4 1 6 4 3 3 4
56 53 49 46 45 45 44 42 40 32 32 23 19 19 17 24 19 9 1 9 7 6 4 4 3 5 4 4 5 6 7 7 9 9 7 4 4 2 3 2 4 2 3 3 6 3 3
58 55 51 47 45 46 42 42 40 35 29 28 21 12 11 20 25 6 4 20 9 6 5 5 8 6 8 7 7 7 8 5 6 8 7 8 1 1 3 3 5 3 5 1 2 3 3
61 57 53 49 46 44 45 42 40 33 32 30 17 4 16 21 20 3 10 12 15 15 4 3 4 2 8 7 9 6 8 5 6 6 6 5 5 4 3 5 7 2 2 2 4 4 4
63 59 55 51 48 47 49 45 42 41 32 33 11 7 29 34 9 4 12 6 6 16 4 4 3 6 5 9 8 9 10 9 9 10 10 8 6 5 10 3 4 3 5 5 4 4 1
63 61 56 51 47 49 53 49 44 41 42 31 7 5 27 31 13 16 7 15 11 9 7 6 5 2 4 5 6 7 8 4 6 8 10 8 2 2 7 4 2 4 5 4 4 3 6
62 60 56 52 48 49 50 48 48 43 46 27 4 8 6 11 12 20 20 13 21 12 16 1 3 3 2 4 5 8 7 4 5 5 8 8 4 7 8 8 4 3 4 4 6 3 4
61 62 57 53 50 55 53 48 48 46 45 29 5 8 7 14 21 17 19 15 22 15 12 8 5 8 3 4 4 3 3 3 2 6 2 6 5 4 3 3 4 5 5 7 6 6 6
60 62 57 54 54 55 53 52 46 49 45 20 7 5 4 2 17 24 17 20 24 22 8 10 17 6 14 10 8 6 6 4 6 3 3 1 3 3 3 3 4 4 6 6 6 3 6
63 60 57 54 56 54 55 52 49 48 44 11 18 3 5 11 20 19 27 23 23 19 19 19 13 12 6 13 9 12 6 4 10 10 6 5 6 4 4 2 3 6 7 8 6 5 6
61 57 55 54 56 56 52 51 50 49 51 22 24 1 3 9 14 22 20 21 23 25 20 16 23 10 6 4 3 5 8 10 9 6 4 6 5 3 3 3 2 7 3 6 5 2 5
56 54 52 53 55 55 52 51 52 46 47 37 11 3 2 4 15 13 21 23 14 19 19 20 10 17 8 2 2 3 5 5 4 7 4 3 6 3 5 4 4 5 4 6 6 2 3
51 50 49 52 52 50 50 50 50 40 44 39 33 12 3 1 8 10 20 19 17 17 11 14 5 5 5 3 3 6 5 6 4 3 3 5 6 5 3 5 7 7 4 3 5 2 5
46 46 47 48 47 46 45 45 44 41 40 36 22 34 6 2 3 9 11 14 12 10 9 5 14 3 2 3 3 4 3 6 7 10 6 3 3 5 2 3 7 7 5 5 6 7 8
40 41 42 43 43 41 42 43 40 38 45 30 26 20 6 1 4 5 5 7 6 13 12 4 6 1 2 4 4 4 3 6 4 5 7 7 7 4 3 3 6 4 5 8 6 3 6
34 35 36 37 38 40 40 39 37 36 38 32 9 29 14 1 3 12 21 28 12 6 11 5 4 7 6 4 2 2 2 2 4 3 2 2 7 6 8 6 3 2 5 1 4 8 5

GFSGBSN_925_spd_042.txt.gz
Wind_Speed
22 22 21 22 22 21 22 21 23 21 20 21 21 19 19 18 18 17 17 18 19 19 22 21 19 17 6 3 8 6 6 10 12 9 5 4 3 3 1 3 1 3 4 4 5 7 0
24 24 23 22 23 23 22 22 21 23 22 20 20 21 20 20 19 18 18 18 19 19 21 20 16 12 2 3 3 3 4 11 7 7 5 4 4 5 2 3 2 4 3 3 3 0 2
27 25 25 24 23 24 23 22 21 20 22 21 20 20 21 20 19 19 20 19 20 19 20 17 12 7 1 12 3 5 4 2 3 7 3 6 3 1 1 4 3 2 2 3 1 1 1
30 29 27 27 24 23 24 23 21 20 19 22 21 21 21 19 19 20 20 22 21 21 21 12 6 4 7 5 8 15 13 8 10 12 11 6 3 3 2 2 5 4 4 2 1 3 2
34 33 30 29 28 25 23 24 23 21 20 19 21 21 20 18 19 20 21 22 24 22 12 4 2 2 9 6 8 10 14 6 4 8 7 8 2 1 4 3 4 5 2 2 2 5 4
32 31 35 33 30 28 25 25 23 23 22 21 20 20 19 16 18 19 21 22 17 6 1 2 0 4 7 0 4 3 5 8 2 2 2 3 5 2 4 4 3 1 2 3 2 3 3
40 35 30 35 34 31 28 26 24 23 22 22 19 19 17 15 17 16 19 7 4 1 3 7 4 4 5 10 3 4 6 8 3 6 2 2 4 3 6 5 2 2 3 2 3 3 5
38 39 36 31 35 35 31 27 24 22 20 20 19 16 17 14 15 14 14 2 1 1 8 11 15 8 14 3 4 4 9 5 4 4 2 5 4 6 4 7 3 5 3 2 4 1 6
40 39 42 37 31 35 35 31 27 24 22 20 18 18 14 11 13 11 11 10 5 6 4 7 6 6 6 12 7 6 8 5 4 5 5 6 5 2 3 0 4 3 0 0 3 5 2
44 42 41 39 37 31 35 35 31 27 24 20 19 16 14 12 6 7 7 1 13 9 2 6 5 7 7 8 4 11 11 6 1 10 7 4 4 3 1 3 5 2 4 2 2 3 1
48 46 44 41 39 36 36 37 35 29 26 22 19 15 14 17 3 4 2 10 5 2 3 3 4 4 6 10 6 7 8 5 8 6 6 6 3 4 5 7 6 6 3 2 1 1 2
50 49 47 44 42 40 39 36 36 32 27 24 20 17 14 15 16 11 6 16 3 1 7 4 6 6 6 4 3 4 5 5 3 5 1 4 2 4 7 1 4 3 3 6 4 3 2
53 51 49 46 43 41 43 40 38 35 31 27 21 17 18 13 4 17 13 3 3 5 3 4 5 6 5 6 5 4 6 6 6 4 4 1 3 2 3 2 3 4 5 2 3 3 5
55 54 52 49 46 42 40 43 38 36 34 28 25 20 21 22 20 5 4 3 10 6 7 4 1 4 8 5 6 5 6 6 2 5 3 6 5 5 4 5 7 4 6 5 4 3 3
55 55 55 52 48 45 41 38 42 39 35 29 20 20 19 21 20 12 3 10 7 5 5 3 1 4 4 5 6 5 8 7 9 8 7 4 4 1 1 1 2 5 3 4 6 3 2
57 56 56 55 51 47 43 41 45 40 37 30 16 11 19 20 24 10 4 16 8 5 2 3 6 5 9 7 6 8 9 5 6 10 5 7 2 1 2 1 2 1 6 3 2 3 3
57 57 56 56 54 49 45 42 43 43 40 32 16 5 12 25 23 4 12 10 19 11 3 3 3 3 6 7 9 6 10 4 8 5 4 5 4 4 1 5 7 2 1 5 4 4 4
54 58 57 57 56 52 47 45 42 44 42 35 9 7 26 37 9 9 17 7 9 21 2 3 2 4 4 5 6 8 10 9 9 10 8 6 5 5 8 2 3 4 7 6 5 3 1
52 54 58 57 59 54 50 47 43 47 49 33 5 5 28 31 13 15 10 17 7 7 8 5 5 3 2 0 3 7 7 4 9 8 9 7 1 0 8 5 3 4 5 3 5 4 6
53 53 54 57 60 57 53 49 49 49 51 36 4 8 6 10 15 18 22 16 21 6 7 4 2 2 0 3 4 3 6 3 7 8 8 8 4 7 8 8 4 4 5 5 6 4 4
51 51 46 58 63 60 55 52 51 53 54 32 6 6 6 14 21 17 19 15 19 16 14 8 2 6 3 5 3 4 2 3 2 6 5 6 8 6 4 4 5 4 5 7 7 6 6
49 49 47 55 63 59 56 55 54 58 55 25 6 4 3 5 15 22 16 22 25 21 10 14 7 8 8 4 6 3 2 2 5 5 7 3 4 3 3 3 3 3 6 6 4 2 5
46 48 46 49 63 59 55 55 59 61 53 10 12 4 3 10 19 17 25 20 20 17 17 7 19 12 4 15 12 10 7 5 4 2 9 8 7 3 4 3 4 6 8 8 6 5 8
45 45 48 53 62 57 52 59 63 66 61 20 7 5 4 6 13 22 21 19 23 23 10 19 10 5 6 1 1 3 4 1 6 3 2 7 7 3 3 3 2 6 1 3 8 6 6
44 43 41 58 58 55 57 61 63 59 57 24 14 3 4 3 11 9 19 22 13 12 16 11 20 8 3 3 4 1 3 2 1 5 4 1 6 3 5 4 5 3 4 7 7 9 6
41 41 51 57 55 54 59 61 59 50 51 40 21 2 2 1 11 10 14 15 18 15 8 9 7 4 3 3 3 5 5 5 5 3 4 5 6 5 3 5 7 8 4 5 4 6 7
36 49 55 54 53 55 52 55 51 45 46 35 25 21 3 1 3 12 15 13 9 11 2 5 8 4 5 2 2 3 5 3 6 10 6 3 3 5 2 3 7 7 4 4 5 8 8
49 50 48 50 52 54 51 47 45 39 41 33 17 24 8 3 5 5 2 6 8 15 9 4 5 7 2 7 4 4 3 6 2 5 8 7 7 3 3 3 7 8 4 9 7 1 6
42 42 45 45 48 51 46 43 38 38 37 30 8 23 18 5 3 4 12 14 5 4 10 6 4 6 7 4 1 3 2 1 5 4 1 3 6 6 9 7 4 6 5 4 5 5 7

GFSGBSN_925_spd_045.txt.gz
Wind_Speed
21 19 19 19 18 17 16 16 18 19 20 20 18 19 20 20 19 20 20 20 21 22 22 22 23 18 8 3 7 4 3 10 14 10 6 4 3 2 2 3 1 5 5 7 5 5 3
24 23 22 21 20 19 18 18 17 20 19 20 20 19 20 19 20 21 20 21 22 22 21 22 21 13 2 4 2 0 9 12 9 8 5 3 2 2 2 2 4 2 4 6 1 5 4
24 27 25 24 22 21 20 20 20 18 18 19 17 19 19 17 20 20 21 21 23 23 22 22 16 7 2 12 2 9 11 5 9 7 4 4 1 2 1 2 3 3 4 0 3 2 3
28 23 27 27 25 24 23 20 20 20 19 19 17 17 19 19 19 18 21 23 24 25 26 20 8 3 7 3 6 13 11 7 10 8 5 2 2 2 2 2 5 2 1 2 2 2 1
30 30 28 25 28 27 25 23 22 19 19 19 20 18 17 17 17 17 19 23 26 28 15 4 2 3 8 3 6 9 15 6 5 9 4 2 0 2 2 2 2 4 2 2 2 3 2
30 30 33 31 24 29 28 26 23 21 20 19 20 19 17 16 14 15 18 21 26 10 1 2 1 4 6 1 2 2 7 10 3 4 2 2 2 1 1 2 4 3 2 1 3 3 1
30 30 31 32 32 27 29 28 26 22 21 19 17 18 16 14 12 14 12 7 4 2 5 7 2 4 3 5 1 5 6 9 4 3 4 1 2 5 6 5 3 2 2 2 1 2 4
36 36 33 31 32 32 26 29 28 24 21 19 17 15 14 11 10 11 10 2 3 2 9 11 15 10 12 0 2 5 10 5 4 4 3 1 4 4 2 2 3 2 2 2 2 1 1
41 40 37 35 33 33 35 27 29 28 23 20 17 15 12 8 8 9 9 10 6 5 4 7 7 6 6 13 8 6 11 5 4 6 6 5 2 5 3 3 4 3 4 2 1 2 1
42 42 41 39 37 35 32 33 27 30 26 21 18 15 13 6 4 9 6 1 5 5 3 7 5 7 6 8 5 11 14 6 2 10 8 4 2 4 4 4 6 4 5 3 1 0 2
45 43 43 42 40 38 35 33 37 28 29 25 21 18 13 13 3 4 4 13 8 4 3 2 4 6 6 8 8 8 10 3 9 7 6 4 4 3 5 6 5 5 3 2 2 2 1
48 47 45 45 43 41 39 35 34 35 30 29 22 20 15 14 15 9 8 12 2 1 8 3 5 5 6 3 3 4 5 5 4 5 1 3 1 4 5 2 5 3 3 3 3 2 2
50 48 47 45 45 44 41 38 35 34 33 30 26 23 21 16 6 19 13 4 3 7 2 3 4 5 6 5 4 4 8 7 7 5 5 0 3 2 3 3 1 3 2 2 1 2 3
52 51 49 47 46 46 44 41 38 35 35 32 28 25 22 24 17 9 10 3 11 5 6 2 2 4 7 6 4 3 9 9 2 4 4 6 3 8 5 5 6 6 6 4 3 3 2
51 53 52 49 47 47 47 43 38 36 34 34 29 28 25 25 23 14 3 9 8 6 4 2 1 4 4 4 6 3 6 12 10 8 5 5 4 1 2 2 3 4 4 2 6 2 1
50 52 51 51 49 49 48 46 41 37 34 34 27 18 25 27 28 12 6 18 10 6 2 1 5 5 9 7 5 11 7 5 6 9 4 6 2 2 2 3 3 2 6 3 1 3 3
50 50 51 50 50 50 51 49 44 39 34 36 20 5 12 29 27 6 14 12 19 9 3 2 2 1 4 6 7 7 10 2 8 8 4 5 3 2 2 5 8 3 2 4 3 2 2
47 49 49 49 51 52 53 53 47 42 37 39 12 8 20 36 13 10 18 12 5 18 3 4 1 4 3 4 5 6 13 11 10 13 10 6 5 5 7 0 2 3 6 6 3 4 1
52 52 51 50 51 53 55 56 52 47 45 33 6 6 27 38 14 14 14 15 13 11 12 5 6 5 1 1 3 6 6 4 9 9 10 8 2 2 1 1 1 3 5 4 5 3 7
54 53 52 51 51 52 57 60 56 52 51 33 5 8 6 12 15 21 19 23 21 10 5 8 3 2 1 2 2 2 5 3 7 5 7 8 4 6 9 7 5 4 5 7 5 4 5
57 56 54 53 52 53 57 63 59 55 56 32 6 6 7 12 20 22 20 17 24 13 13 9 6 10 3 5 3 3 1 1 2 6 4 5 7 6 5 4 5 6 6 11 10 7 8
57 54 55 54 53 53 54 65 61 57 60 20 6 5 4 8 25 24 17 19 28 25 16 15 11 10 14 6 7 2 4 2 3 1 5 2 4 5 3 4 7 6 5 8 8 4 9
51 54 54 56 53 53 60 66 62 60 63 9 13 5 8 13 19 19 23 19 18 18 13 10 14 5 6 14 11 7 4 6 5 5 3 3 6 4 4 0 2 4 8 10 6 5 6
37 43 51 53 51 52 58 66 64 64 67 17 16 4 6 8 14 21 18 18 20 26 9 15 13 15 4 2 3 0 2 1 6 6 5 5 5 1 3 2 5 3 1 2 10 6 9
24 36 45 47 46 44 64 65 64 65 67 20 21 5 3 7 12 16 18 22 12 14 18 13 7 5 5 3 3 3 2 3 2 2 6 4 5 3 5 4 3 2 4 7 7 13 10
27 41 40 45 43 38 66 65 63 62 67 22 19 9 3 5 7 10 20 19 13 12 7 8 0 3 6 2 3 4 5 3 4 3 3 5 3 4 3 5 8 5 4 5 4 12 8
31 35 40 41 30 62 64 63 58 57 62 31 10 16 4 0 4 5 11 15 14 7 5 5 7 3 4 2 2 3 4 6 3 6 6 3 2 7 3 4 6 6 4 5 6 8 5
30 33 37 32 53 59 59 57 55 56 58 37 11 17 6 1 3 5 4 7 10 15 9 5 5 3 2 5 4 3 4 6 4 2 5 7 7 4 4 2 7 8 6 10 6 2 5
29 32 33 49 54 50 51 52 53 52 55 33 8 14 11 2 1 5 9 13 6 21 9 11 7 6 7 4 4 3 2 0 4 8 1 4 6 5 10 7 2 10 4 6 4 4 5

GFSGBSN_925_spd_048.txt.gz
Wind_Speed
20 20 20 20 18 19 17 16 16 15 16 19 20 20 18 16 17 20 18 18 19 20 21 22 23 23 10 7 7 4 3 12 14 9 10 9 6 4 5 3 3 11 10 7 5 2 0
21 18 22 22 21 20 19 17 17 16 17 17 17 17 19 17 17 16 19 17 19 20 20 22 23 19 4 10 3 3 8 15 10 12 9 6 0 2 3 5 7 5 10 8 3 4 3
25 25 24 19 23 22 21 20 19 17 17 16 16 16 16 17 18 17 20 17 20 22 22 23 22 8 6 13 3 6 11 7 9 8 7 5 2 4 2 5 4 9 10 7 8 8 2
23 24 27 27 24 23 24 22 21 19 18 17 16 16 15 15 19 18 19 19 20 23 25 22 11 3 8 5 7 9 11 7 8 7 3 2 3 5 4 4 6 9 6 9 7 7 5
24 24 25 24 30 26 22 25 24 22 20 18 17 16 17 15 14 15 17 17 20 24 19 6 2 4 7 5 7 15 16 6 8 8 5 3 4 4 4 9 7 8 11 5 3 5 2
26 25 26 26 27 30 30 24 25 24 22 20 18 17 16 15 13 12 14 15 20 16 2 2 2 4 8 4 6 7 15 13 4 9 5 7 5 8 7 8 9 9 9 8 5 5 6
28 29 29 28 27 24 27 30 24 24 23 21 18 17 15 14 11 9 8 9 6 5 7 9 2 4 2 1 3 11 10 13 10 9 10 9 9 9 3 4 8 7 7 8 6 4 5
35 37 32 30 30 27 25 25 32 24 24 22 18 17 14 13 9 7 5 5 4 4 10 15 19 20 17 0 3 10 13 14 11 13 8 6 11 2 2 4 7 7 8 7 2 3 6
38 38 36 36 35 33 30 27 27 31 25 24 20 17 13 11 9 7 11 9 2 5 7 10 15 12 9 15 11 14 15 17 15 14 14 12 3 5 7 8 9 9 10 4 2 2 4
41 40 39 38 36 36 35 31 29 27 32 25 22 19 14 9 6 9 7 6 3 6 6 6 8 9 11 11 10 19 21 16 8 18 12 10 5 8 8 9 8 10 10 5 4 7 7
43 42 41 40 39 38 37 35 32 29 28 28 24 19 16 15 4 7 7 3 9 6 7 7 6 8 9 18 12 17 24 12 19 11 9 9 9 11 11 10 8 4 4 7 6 9 7
45 45 44 42 40 40 39 37 35 31 28 28 24 21 19 16 16 6 9 5 5 5 9 5 7 10 11 14 9 13 14 10 9 12 11 8 2 5 3 3 10 4 6 6 5 6 9
45 46 46 44 43 42 41 39 38 35 30 31 27 24 21 18 14 15 7 4 6 10 2 7 6 9 14 14 13 18 23 21 15 16 16 14 13 6 6 7 7 10 9 7 7 7 8
47 47 47 46 46 43 42 42 39 37 32 29 27 24 25 24 23 11 15 5 14 10 14 1 4 9 10 18 14 17 22 21 22 19 12 14 13 15 12 13 8 14 12 6 6 5 5
49 49 49 47 46 45 44 43 42 40 34 30 24 27 23 26 25 15 7 13 14 15 12 7 7 9 9 14 9 14 20 24 23 20 14 14 14 5 7 6 10 8 9 3 3 0 3
49 49 50 49 48 47 46 45 45 43 37 31 26 21 27 26 23 16 8 25 18 15 10 11 11 9 13 16 10 17 18 18 23 22 17 7 10 5 7 7 3 6 9 6 5 5 7
49 46 47 50 50 49 48 47 46 45 39 33 24 5 17 29 20 6 9 29 28 16 13 9 11 10 7 12 17 16 15 6 23 21 19 10 9 6 7 11 13 6 7 3 2 3 4
40 42 45 50 51 49 48 48 49 48 43 37 14 9 21 38 11 5 13 30 17 21 16 8 5 6 5 9 15 15 22 16 17 21 20 18 9 9 13 3 4 7 10 12 7 6 4
44 43 42 46 56 51 49 49 51 54 51 37 8 5 28 32 14 12 29 26 28 19 24 12 11 7 4 4 7 16 12 11 14 19 17 14 10 10 10 6 5 9 11 12 7 3 12
49 48 47 44 44 53 49 50 53 59 56 37 6 7 6 12 20 27 29 24 30 23 23 14 11 7 8 6 4 4 9 4 12 18 3 17 13 16 13 14 12 11 13 15 15 8 11
55 53 53 52 51 51 49 51 55 62 62 39 7 8 11 14 20 29 28 28 28 30 26 19 15 17 13 5 3 3 2 5 6 4 7 11 16 17 18 16 15 16 14 15 16 17 13
60 56 53 58 55 55 56 55 59 63 65 22 6 7 14 13 27 32 28 26 32 29 24 24 20 21 13 13 4 5 7 7 1 3 7 6 10 11 13 13 14 16 17 18 19 17 14
43 52 49 55 59 57 57 57 60 68 67 8 18 18 13 15 27 20 23 29 32 27 27 25 20 11 21 20 9 3 5 8 8 4 9 5 8 8 13 9 8 6 16 16 16 14 15
28 37 45 48 57 57 57 56 61 69 70 24 27 13 9 14 17 23 32 31 29 28 26 16 15 17 6 6 6 7 11 9 10 9 9 5 9 5 5 4 7 8 3 17 18 15 15
32 30 35 53 56 56 56 56 58 66 70 30 26 12 8 11 19 24 27 28 23 22 24 22 10 13 3 3 5 6 5 7 8 7 12 14 8 4 4 9 9 4 6 8 12 16 14
21 20 26 49 53 55 53 53 53 67 70 27 30 24 5 12 16 22 22 17 19 20 19 20 11 7 7 5 5 7 8 8 7 4 2 8 9 8 4 7 7 9 11 10 4 15 10
11 13 35 42 45 46 49 52 55 69 67 31 17 22 10 8 8 15 17 17 26 16 16 18 10 10 10 6 4 5 6 6 12 6 5 5 4 12 11 7 6 3 10 11 9 14 5
16 22 33 38 42 45 49 50 66 63 53 35 21 20 16 5 1 1 13 16 19 16 16 16 10 5 7 8 7 5 4 6 8 12 6 8 9 5 8 7 11 12 11 11 13 3 7
21 25 36 39 41 45 44 60 62 62 43 32 9 14 9 3 3 5 6 8 7 26 15 17 13 16 8 7 6 5 3 1 8 10 7 8 6 3 9 6 3 20 15 17 6 7 7

GFSGBSN_925_spd_051.txt.gz
Wind_Speed
19 17 16 18 19 18 18 17 16 16 15 16 16 16 19 19 19 18 19 19 19 21 21 23 25 24 14 7 11 2 6 8 12 10 12 11 11 12 11 5 4 11 10 6 8 1 4
19 21 19 19 16 18 20 19 19 17 17 17 17 17 16 16 19 20 19 19 20 21 21 22 26 22 11 14 2 3 6 13 12 14 13 12 9 5 10 9 9 7 10 11 3 5 4
20 20 19 26 26 21 19 20 21 20 18 17 17 16 17 17 16 17 19 20 21 20 23 22 24 11 11 19 5 6 11 13 12 14 11 11 7 10 3 11 9 11 15 11 11 11 11
20 20 20 21 21 27 27 19 20 21 20 19 18 17 17 18 18 18 20 21 21 20 23 23 17 9 8 7 8 11 14 11 10 12 9 6 8 10 10 9 12 15 17 12 13 10 8
23 24 23 22 22 22 24 28 23 20 21 21 19 18 18 18 19 18 17 17 19 21 21 15 4 9 9 5 11 18 18 15 14 12 11 6 10 13 9 12 14 14 16 5 9 11 7
27 27 26 27 25 22 21 23 28 29 21 21 21 19 19 18 19 18 17 15 16 21 8 7 12 8 11 11 11 17 21 14 12 12 11 12 10 12 13 13 12 9 13 12 11 8 9
28 28 30 28 26 28 24 21 20 26 28 21 20 19 18 17 17 17 14 14 7 7 15 11 4 14 1 7 6 15 23 18 14 14 16 17 13 14 16 7 12 12 16 11 5 5 7
34 33 32 32 33 29 25 24 23 21 24 26 20 18 16 16 15 16 12 8 6 5 10 17 21 21 20 2 8 16 23 18 17 18 18 13 15 17 4 6 10 11 15 14 5 5 6
37 36 35 35 34 31 33 29 27 26 23 25 22 18 16 14 14 15 15 14 5 6 8 15 23 26 21 23 15 19 23 23 20 20 19 16 10 4 5 11 12 12 15 3 10 13 10
39 39 38 37 36 35 33 31 31 30 27 21 24 19 16 12 11 16 17 13 12 8 7 13 9 10 24 20 17 28 31 23 17 21 19 17 14 8 10 13 12 15 14 6 10 11 7
40 39 38 38 37 37 36 35 32 30 29 25 22 21 17 16 13 9 4 8 8 5 7 2 15 2 12 21 10 24 29 25 25 20 14 17 14 11 15 15 10 8 3 8 12 13 14
42 41 40 40 39 39 37 36 35 31 30 26 22 20 19 16 17 22 10 4 11 7 13 7 9 11 13 23 23 12 28 27 21 20 17 19 12 12 15 12 8 7 5 9 12 12 11
44 43 42 42 41 40 39 38 36 35 32 28 24 21 22 20 16 17 16 4 7 14 5 13 9 14 17 17 23 18 29 29 21 22 21 20 15 15 5 10 10 13 12 9 9 9 11
46 45 45 44 43 42 41 40 38 36 34 30 25 21 25 24 23 15 7 5 16 20 29 3 9 13 15 17 23 21 25 26 28 23 16 18 19 21 14 16 11 17 16 7 8 8 6
47 48 48 47 46 44 43 41 40 38 35 32 26 22 25 27 23 19 3 11 25 25 20 27 7 12 15 18 16 22 27 27 29 26 19 19 21 18 19 16 16 14 17 16 13 8 7
49 49 50 50 49 46 45 43 42 40 37 33 27 24 30 31 24 20 6 6 28 26 26 14 24 15 17 17 17 23 24 26 28 29 22 9 14 13 13 13 14 12 12 12 9 6 10
49 48 49 50 49 49 47 45 42 43 40 36 25 6 17 28 22 6 9 19 21 28 24 24 21 21 13 15 21 19 17 13 27 25 21 16 13 11 12 14 17 12 10 11 7 10 5
41 40 41 50 51 50 48 46 45 45 44 42 13 10 18 36 10 5 16 35 34 24 30 21 18 18 23 13 18 21 24 20 12 17 21 22 11 12 17 18 20 16 19 18 10 12 8
39 41 40 42 40 37 45 46 48 48 52 38 6 7 26 38 12 15 24 37 36 30 24 29 20 20 12 13 11 18 16 15 13 21 19 20 12 12 15 11 10 14 16 15 17 11 12
39 38 40 40 40 41 43 46 51 52 57 41 7 9 5 14 19 26 32 37 37 29 27 25 19 23 20 15 12 5 19 7 15 14 15 12 17 20 15 17 15 18 17 17 15 10 12
40 42 43 44 44 47 48 46 52 57 61 44 8 8 11 14 20 33 31 22 33 34 31 24 18 26 24 20 16 15 12 5 5 8 6 9 22 20 23 20 17 23 23 22 22 19 17
43 44 44 45 47 48 50 48 54 60 63 27 5 7 16 15 26 30 26 34 36 34 28 29 24 19 20 21 17 13 11 8 7 8 14 16 16 21 21 20 18 19 18 18 20 21 20
47 47 48 48 51 52 53 52 58 62 62 7 12 20 14 18 27 23 24 35 40 32 32 32 27 20 17 20 4 12 6 8 4 6 9 9 13 16 17 18 19 17 17 19 20 19 17
47 46 45 45 49 54 60 57 56 62 70 16 20 17 10 14 16 25 32 33 36 34 31 31 29 23 21 10 2 4 9 5 4 7 9 8 14 12 8 3 16 10 15 20 22 20 17
39 42 43 43 43 48 61 60 61 59 69 33 29 15 9 12 20 24 28 27 29 29 24 24 28 27 12 6 7 7 3 5 6 12 16 12 10 7 8 12 13 18 10 13 15 16 17
29 35 43 39 37 40 53 59 59 64 66 36 32 32 10 11 16 26 19 25 20 19 19 21 21 12 8 4 7 16 8 7 8 8 21 14 14 10 7 14 19 12 14 12 13 13 14
18 12 20 31 33 46 51 61 60 62 64 42 29 37 10 8 13 7 14 20 22 20 15 19 19 13 14 6 8 11 13 12 12 12 8 8 7 12 13 10 8 10 14 12 13 14 8
15 20 26 24 28 41 55 58 59 60 57 42 30 37 17 5 5 9 13 17 18 18 16 20 14 9 9 9 9 7 7 10 13 16 14 9 7 6 9 11 14 2 10 14 14 16 6
3 8 18 30 33 46 50 53 54 55 51 37 17 38 25 0 3 2 6 1 2 17 17 16 12 19 9 10 7 7 5 2 11 10 15 13 9 8 8 5 9 12 14 16 16 12 9

GFSGBSN_925_spd_054.txt.gz
Wind_Speed
15 17 22 20 16 16 17 18 18 18 17 16 16 17 17 18 17 20 21 21 21 20 22 23 25 27 19 7 15 6 9 8 10 11 14 12 12 12 17 14 11 9 14 15 11 9 5
17 17 20 20 22 22 16 17 18 19 18 17 16 17 17 18 18 19 20 22 22 21 22 23 22 24 12 15 11 5 7 10 13 15 16 16 12 12 12 16 12 14 13 13 15 10 5
17 17 19 20 21 21 25 26 22 20 19 19 18 16 17 18 20 21 21 21 23 23 22 22 21 15 12 23 12 9 10 14 16 16 14 15 15 10 13 13 15 15 15 17 13 6 11
19 21 22 21 20 20 20 21 25 25 19 19 19 18 18 19 20 22 23 22 23 23 22 22 19 11 10 17 16 20 18 17 16 14 18 12 10 11 13 15 17 16 17 16 9 10 11
22 23 24 23 24 24 21 20 21 23 25 20 19 19 19 20 20 24 24 23 22 19 21 19 9 9 12 8 18 21 20 19 15 15 13 12 8 12 15 15 14 15 14 16 7 10 10
23 24 25 25 27 24 26 24 20 20 21 25 24 19 19 19 20 22 25 23 16 19 11 10 14 8 13 16 17 19 22 21 16 13 13 12 8 12 14 12 14 16 14 16 15 11 9
26 26 26 27 28 27 27 22 24 21 21 20 21 18 17 17 18 19 22 13 6 6 10 10 9 9 18 10 3 14 23 22 13 15 16 17 12 15 19 18 22 14 14 15 4 8 5
33 33 31 30 31 30 28 28 26 24 22 20 18 19 17 15 16 16 16 7 5 7 12 18 25 24 32 26 8 15 26 18 17 19 19 16 18 19 20 12 9 11 14 15 8 7 3
35 35 34 32 31 30 30 28 26 30 25 23 20 19 17 13 16 17 15 23 19 14 8 20 24 26 28 26 20 15 23 24 21 20 19 20 20 20 20 8 11 13 15 13 12 4 16
36 36 35 34 32 32 32 31 30 28 25 26 25 17 14 10 13 12 13 14 17 11 7 12 16 11 26 23 26 29 27 23 17 23 22 21 22 9 10 11 14 13 14 13 7 9 7
39 38 36 35 34 33 31 31 30 30 27 24 23 19 14 15 17 8 7 7 4 3 7 6 20 9 11 26 11 25 34 25 25 23 15 21 19 19 15 15 14 12 3 10 12 12 12
40 39 37 36 35 34 32 31 30 28 28 25 23 20 13 14 17 24 15 9 4 5 12 6 8 10 11 25 31 9 25 24 24 24 23 22 17 18 17 15 15 12 6 9 9 10 10
39 39 38 37 37 36 34 33 31 29 27 27 24 23 17 17 14 14 11 4 7 12 7 11 12 10 16 16 25 26 21 27 24 22 21 21 22 19 14 19 16 9 9 8 6 8 9
41 41 40 39 38 36 36 34 32 31 28 27 26 23 20 20 21 16 2 5 15 22 31 6 14 16 18 16 19 24 25 23 24 24 17 17 18 24 13 14 13 14 15 8 6 4 7
42 42 41 41 40 38 37 36 34 32 30 27 25 24 23 21 22 17 2 14 18 26 20 25 21 12 16 17 13 20 24 21 23 27 22 19 22 19 18 15 19 11 16 17 14 3 3
43 43 42 42 41 40 40 39 36 34 32 29 26 20 25 22 24 15 6 14 27 29 29 26 22 18 14 18 17 19 23 18 23 27 21 18 13 23 23 21 17 16 12 12 10 6 5
43 45 44 45 43 42 42 41 40 37 35 31 24 5 13 28 23 6 13 20 32 34 28 29 26 24 23 19 19 20 21 21 24 22 23 21 16 12 14 15 17 13 13 11 12 10 7
46 45 48 45 44 43 44 44 43 41 39 38 12 8 19 38 10 6 18 41 19 27 30 29 26 27 24 23 12 19 23 20 17 27 27 21 6 13 16 16 16 18 16 16 9 9 5
47 49 44 45 38 36 43 43 48 45 45 34 5 5 20 33 12 16 24 34 32 27 32 28 28 26 22 19 12 15 21 18 8 11 20 19 16 11 16 15 16 18 16 17 16 10 14
46 48 40 36 38 36 37 36 46 47 49 36 6 7 6 12 18 26 26 35 33 30 29 30 26 24 21 17 20 12 14 16 9 9 6 18 15 16 12 14 11 18 18 19 18 8 5
43 39 38 38 38 37 37 36 39 54 52 42 7 6 9 15 19 30 27 18 29 26 32 30 28 29 22 13 14 18 26 9 2 8 3 5 20 21 18 18 17 20 21 20 21 14 13
37 38 38 39 40 40 41 40 41 45 49 34 6 5 14 12 26 29 26 30 33 22 27 35 30 30 24 18 14 16 20 8 14 9 11 10 14 18 20 19 21 19 18 20 21 20 18
36 38 40 41 43 44 45 46 46 47 50 20 10 16 10 18 23 22 24 33 34 28 24 30 31 24 23 18 8 2 7 15 19 13 10 12 12 14 17 18 18 19 18 17 14 16 14
41 43 43 45 46 47 48 50 52 52 53 30 13 12 4 8 17 22 31 34 34 29 28 26 27 27 24 6 13 2 8 14 24 3 4 5 10 10 6 5 24 9 14 15 15 16 15
44 46 48 50 50 49 50 51 54 56 55 45 17 13 8 3 18 24 30 27 25 23 22 25 25 27 20 12 7 4 3 4 12 8 4 3 4 5 6 12 12 15 12 11 12 16 18
37 37 39 39 43 47 51 53 55 58 57 51 26 34 10 11 14 28 16 25 19 18 20 25 24 17 14 12 8 9 5 6 6 4 7 7 6 7 3 10 12 4 12 13 11 12 12
29 29 32 34 38 47 51 52 55 59 59 53 21 42 13 3 10 12 11 15 18 18 16 16 21 14 11 14 14 11 10 16 7 6 5 3 7 11 10 7 6 6 13 14 16 7 8
21 24 28 31 29 36 47 49 52 58 61 54 30 39 21 5 6 3 7 7 12 15 14 11 7 6 1 9 13 8 6 10 7 12 10 10 8 5 7 5 13 7 8 18 9 10 6
17 17 23 30 26 33 38 38 47 60 55 43 19 37 26 3 2 2 6 2 13 15 9 10 18 9 8 7 6 6 4 5 9 6 7 7 7 5 6 4 11 6 7 6 6 7 7

GFSGBSN_925_spd_057.txt.gz
Wind_Speed
15 15 15 17 17 16 14 13 14 18 18 17 17 18 18 20 20 21 23 23 23 23 23 21 22 24 16 3 10 15 8 10 10 10 11 7 8 7 10 6 8 6 5 9 9 8 4
15 15 15 15 17 16 15 17 21 22 19 19 18 18 19 20 21 22 25 24 23 23 22 21 20 20 5 10 13 13 11 11 13 13 10 15 8 11 8 8 7 7 8 8 7 10 1
17 17 19 21 20 17 16 17 17 21 25 21 19 19 19 20 21 23 26 27 26 24 22 20 17 14 8 21 12 10 19 17 12 19 9 20 22 5 7 10 8 12 9 8 10 7 6
18 19 20 21 22 21 21 19 16 18 21 23 21 19 20 21 21 24 27 29 29 27 22 18 14 8 9 20 18 23 20 23 19 20 27 24 18 6 3 8 10 9 7 5 13 10 5
20 20 20 22 23 24 23 22 21 19 18 19 20 22 20 20 21 24 28 31 30 22 18 15 9 6 11 14 14 27 27 20 21 25 23 21 8 2 5 5 6 5 8 12 17 11 5
21 21 20 23 24 23 23 24 22 21 21 19 18 20 19 19 19 20 26 34 24 19 9 7 8 4 10 7 12 16 21 21 10 6 6 5 2 4 3 2 7 10 6 9 7 8 6
24 23 23 25 27 26 24 23 23 25 20 21 20 17 17 17 17 18 24 15 3 1 5 9 9 7 11 15 26 13 21 17 11 6 9 6 4 11 11 14 18 16 12 7 5 2 5
25 26 27 28 28 26 26 25 25 23 23 23 21 18 17 16 17 16 17 5 7 4 9 15 19 22 30 23 10 19 19 9 11 15 9 8 17 13 15 17 17 13 6 8 6 8 2
30 32 30 29 28 27 27 26 27 26 24 22 23 20 17 14 16 18 18 19 20 23 5 15 19 15 23 21 13 20 9 17 9 12 12 14 13 17 18 18 16 6 6 7 7 1 3
32 34 34 31 29 30 29 28 26 26 25 23 21 19 19 12 11 16 9 10 15 17 5 7 10 8 13 12 9 28 19 15 7 18 15 11 20 19 18 17 5 6 10 11 7 1 4
35 35 34 33 32 31 29 27 26 24 23 23 21 18 14 10 12 9 10 22 22 7 6 7 6 10 9 18 9 15 33 8 21 18 11 16 9 20 19 6 7 9 7 4 4 5 2
37 36 35 33 32 30 29 27 25 25 24 22 21 18 13 10 16 24 22 27 13 3 10 6 6 7 9 18 7 3 16 16 5 19 17 14 15 14 16 8 10 7 3 4 4 1 4
37 36 35 34 31 31 30 28 27 25 24 22 21 18 17 14 7 12 16 8 3 7 5 7 5 9 7 9 16 10 11 16 15 14 19 19 21 17 11 8 5 7 4 1 4 2 6
37 37 37 35 33 32 30 29 28 26 25 22 21 20 20 19 20 17 11 2 9 11 16 4 5 8 8 7 14 19 15 13 16 16 7 15 16 18 8 13 8 10 7 5 6 4 6
39 38 37 35 34 33 31 30 29 26 24 23 21 21 19 21 21 12 2 8 11 8 11 14 20 15 13 8 7 16 19 20 14 21 17 12 21 7 15 6 9 4 6 7 5 2 4
39 39 36 35 35 33 32 31 29 27 25 22 22 14 19 25 18 11 6 16 17 18 14 18 10 6 8 6 10 10 8 11 21 19 19 8 8 22 12 10 9 9 4 5 3 5 5
40 40 38 36 34 34 34 32 30 28 27 24 20 4 14 27 20 4 14 19 19 17 14 11 13 13 19 17 12 17 8 15 15 20 22 23 12 9 14 14 13 4 9 4 3 4 6
40 40 39 38 37 37 36 35 33 31 30 29 8 6 24 35 9 7 22 15 13 16 15 18 8 12 16 17 13 15 13 12 12 10 22 15 8 15 15 9 19 16 12 9 5 5 4
42 42 40 40 39 40 39 37 34 33 36 25 5 4 27 30 11 18 20 27 24 19 12 11 14 10 16 18 11 2 10 10 18 12 17 9 14 6 7 8 9 19 8 9 9 5 8
43 42 41 40 41 41 38 39 40 36 40 35 5 5 4 13 15 23 23 25 23 8 25 24 18 16 21 17 15 5 4 10 21 19 20 19 9 18 17 4 6 6 12 13 10 4 6
43 42 42 42 40 41 41 34 33 35 44 40 5 5 6 11 21 21 17 4 21 17 17 14 14 24 21 11 15 12 4 10 18 21 13 10 15 14 11 11 14 16 12 16 14 14 9
44 42 42 42 41 35 32 34 39 39 40 33 6 5 7 7 17 22 19 25 26 17 17 18 20 23 11 19 19 12 5 3 1 14 10 10 3 9 16 18 15 10 15 15 17 16 12
43 41 36 33 34 36 36 38 39 39 37 12 8 9 7 11 15 16 27 33 27 18 20 19 19 19 21 26 10 2 7 6 4 3 10 10 3 5 17 19 18 16 16 21 15 12 11
32 32 32 33 34 36 38 41 42 43 44 33 9 6 6 5 16 23 26 27 25 19 22 17 14 15 29 5 6 3 5 0 3 3 5 10 14 3 4 4 14 7 11 10 16 14 6
34 35 37 39 40 41 42 43 45 47 46 37 12 5 7 10 16 20 24 20 24 16 23 18 23 21 6 11 13 3 4 4 4 1 8 13 14 3 7 9 5 12 8 4 7 8 7
37 38 40 42 43 45 47 48 48 49 46 44 29 21 1 5 11 22 17 20 14 15 17 22 23 9 5 8 5 13 7 3 4 3 6 11 16 5 3 3 17 2 8 7 3 9 4
38 37 36 37 39 40 44 50 52 53 50 43 23 29 8 1 7 18 13 15 15 14 12 13 13 8 7 5 5 8 8 4 5 6 3 2 8 4 3 1 6 5 8 2 7 4 5
28 28 29 31 33 36 41 45 50 54 53 48 34 34 20 2 7 9 6 2 11 13 11 7 6 7 4 7 5 4 5 9 5 6 6 6 4 1 0 3 5 6 7 6 4 8 6
23 25 28 31 32 33 39 41 45 51 53 51 14 35 31 7 3 4 5 14 14 3 4 6 6 5 5 3 3 4 3 4 8 9 6 5 7 6 7 5 4 8 4 2 8 12 8

GFSGBSN_925_spd_060.txt.gz
Wind_Speed
12 12 12 11 12 13 13 13 16 18 17 15 14 16 18 18 19 20 21 23 24 23 24 22 20 21 14 4 11 19 18 10 11 9 8 5 2 3 5 4 5 6 8 9 9 3 5
14 13 14 14 15 13 13 13 16 16 18 20 18 15 18 19 21 22 23 26 27 26 24 22 18 16 3 7 10 9 12 15 11 11 6 8 6 4 6 5 1 4 7 10 8 7 10
15 14 17 17 16 15 15 16 16 16 17 18 17 17 18 17 21 24 27 29 31 28 25 21 15 10 8 19 9 3 6 10 10 15 5 14 18 2 4 6 2 5 7 11 9 4 5
17 16 16 18 17 17 18 19 18 18 18 18 16 17 18 20 21 22 27 31 34 32 27 17 10 6 9 20 20 27 24 27 26 20 21 19 14 5 5 5 8 5 5 3 7 4 4
19 19 18 16 18 19 18 20 20 21 19 19 18 17 19 21 19 22 26 31 37 31 22 8 3 4 11 11 10 18 24 12 10 19 20 19 7 6 3 3 5 2 5 5 10 8 7
18 20 20 17 18 21 21 21 21 21 21 20 17 17 18 19 19 21 26 36 30 13 3 3 4 2 9 6 4 17 13 22 8 5 2 5 2 4 2 4 6 5 4 4 9 8 5
21 21 22 19 20 22 21 21 22 22 20 20 20 18 17 18 19 19 24 16 5 2 1 9 9 7 12 5 13 7 10 11 6 4 9 3 4 13 10 9 7 4 6 10 13 5 4
23 23 22 21 21 22 22 22 22 23 22 21 20 17 16 17 21 17 17 3 5 5 11 16 20 23 35 16 10 20 6 7 7 12 7 4 16 14 8 8 9 8 11 15 8 7 4
25 25 24 23 23 23 23 22 23 23 22 22 20 17 16 18 20 17 11 13 13 21 4 8 19 14 15 18 16 21 3 7 8 8 12 14 5 15 12 12 13 13 11 15 9 4 4
25 26 26 25 26 24 24 25 24 23 22 20 19 16 14 11 12 7 6 7 24 10 4 8 7 10 12 9 9 26 17 7 6 16 11 9 17 13 8 15 11 11 10 6 7 4 5
27 26 29 29 28 27 26 26 25 22 20 19 17 14 12 10 11 5 8 23 27 4 5 6 6 5 9 15 7 11 34 6 14 14 10 9 8 12 17 18 13 12 14 6 5 3 2
29 30 30 28 27 26 26 26 24 21 19 18 17 14 12 13 16 18 22 25 8 1 9 6 5 7 8 9 3 2 11 4 3 7 9 10 9 5 12 14 14 14 4 1 4 2 3
31 32 29 28 27 28 27 26 23 21 19 18 17 16 15 18 3 3 15 10 3 7 4 5 4 7 5 7 6 1 14 14 9 9 16 15 20 14 9 11 9 6 5 2 3 2 8
32 33 30 30 30 30 30 26 25 22 20 19 18 17 17 22 19 13 9 3 12 5 10 4 5 9 3 4 5 3 3 11 15 4 6 12 7 18 11 16 7 8 9 6 6 4 5
33 33 31 31 32 31 29 27 26 23 21 19 16 18 17 24 18 9 3 9 7 5 5 6 15 7 3 2 5 7 9 7 9 16 6 7 9 7 14 11 7 7 5 9 5 2 2
33 34 34 35 33 31 28 26 26 24 22 20 18 12 13 23 17 9 5 17 8 5 7 9 2 4 4 6 6 5 4 2 8 9 10 4 5 8 19 8 12 13 6 3 1 5 8
37 35 35 35 33 32 30 27 26 25 24 23 18 4 12 24 19 4 12 12 10 12 10 3 4 4 4 5 4 2 2 12 2 4 18 8 10 12 4 9 11 2 3 2 5 5 6
37 38 39 37 34 34 33 29 27 26 24 24 7 5 20 30 7 6 19 12 4 10 7 12 6 6 7 4 4 4 4 4 7 5 4 12 6 12 24 14 5 20 11 10 5 5 3
40 41 41 39 38 36 35 33 31 29 28 18 3 3 22 29 11 17 14 14 18 11 2 4 7 11 5 3 4 6 3 7 6 4 7 8 6 8 6 14 16 11 8 12 6 4 11
42 42 40 38 39 38 36 35 35 34 32 31 4 5 4 11 9 13 20 19 18 12 23 20 11 7 6 8 6 7 3 6 7 2 4 1 7 15 18 6 5 5 8 15 12 5 5
42 42 40 39 38 39 38 37 36 37 37 33 4 6 6 10 17 16 12 9 23 19 14 6 8 21 6 5 2 11 6 3 3 6 5 5 7 12 18 16 17 6 9 10 14 9 10
43 43 42 41 39 39 38 38 38 40 42 26 5 5 4 1 15 22 21 25 23 15 12 14 17 10 15 18 8 13 10 10 5 2 3 7 5 14 19 19 17 19 17 19 17 6 6
42 41 41 41 40 40 40 40 41 44 44 15 18 7 4 10 12 16 32 22 16 16 13 16 13 13 16 7 10 9 5 5 0 2 2 4 6 9 6 6 13 8 25 22 8 6 5
40 38 41 41 39 38 38 40 41 40 44 19 6 5 6 8 17 25 14 22 20 18 19 12 12 11 7 4 3 2 2 4 4 5 5 6 4 1 7 8 13 18 5 10 11 13 13
33 27 27 27 28 29 30 31 36 39 46 30 14 6 4 10 16 18 23 15 16 18 21 17 16 13 10 4 2 4 3 5 5 6 9 5 6 3 3 5 8 12 8 15 15 20 14
29 30 31 32 32 33 34 35 36 38 41 40 25 22 1 3 15 18 14 15 12 15 14 19 15 8 3 1 3 7 5 3 3 5 6 7 7 5 3 6 8 2 11 5 3 6 5
30 31 33 33 34 35 37 38 40 42 44 37 15 32 9 2 3 10 12 16 10 10 5 4 6 9 7 3 2 5 8 6 8 7 5 1 1 3 3 4 8 5 8 5 8 5 4
33 33 35 35 36 37 40 42 44 45 43 41 29 35 20 3 5 5 7 6 9 12 9 3 3 2 4 7 4 5 4 7 2 5 8 7 6 4 2 2 8 4 7 3 2 5 7
27 25 27 28 30 31 34 37 41 46 50 44 15 32 28 3 2 3 23 14 11 8 8 6 5 5 5 4 4 3 2 0 6 7 3 2 6 6 7 8 15 5 2 1 3 4 4

GFSGBSN_925_spd_063.txt.gz
Wind_Speed
12 11 12 13 14 13 13 12 13 15 15 16 18 18 19 17 19 22 24 26 27 25 26 25 20 19 10 3 11 14 11 10 9 10 8 4 4 5 3 3 1 5 4 4 8 8 4
13 13 13 14 14 14 14 14 15 16 17 15 17 18 18 19 20 21 24 26 29 27 25 25 19 13 3 5 6 9 9 9 11 12 7 7 5 6 2 4 3 3 5 9 7 4 7
14 15 15 15 15 14 15 18 16 15 16 18 17 17 19 19 21 24 25 26 28 28 27 25 16 6 6 17 6 3 4 4 7 8 3 10 6 2 2 6 3 3 8 7 6 4 7
16 16 16 16 16 16 14 15 17 17 16 18 18 17 18 22 22 23 25 28 28 32 30 24 9 3 8 20 20 24 18 25 20 18 16 18 10 3 4 4 7 5 3 3 4 1 3
17 17 18 17 18 18 17 17 18 18 19 18 19 18 17 20 22 24 26 31 35 33 21 6 3 4 11 10 10 12 16 10 15 19 19 8 6 6 2 4 4 3 6 5 8 3 2
18 18 18 19 19 20 21 19 19 19 20 19 19 20 20 20 23 25 29 34 23 5 8 9 3 1 9 6 5 11 9 14 5 5 2 6 4 4 2 4 7 5 4 4 4 5 4
19 19 20 21 19 20 21 19 18 20 20 19 21 20 19 19 21 24 30 17 6 2 3 7 7 6 5 8 7 5 8 7 5 4 7 5 4 12 14 8 3 3 3 5 8 12 3
20 22 21 20 21 21 22 20 19 19 19 20 20 19 18 18 21 22 22 2 5 2 11 15 19 22 33 17 11 21 3 6 6 7 7 3 17 6 7 7 5 5 5 13 11 11 6
22 22 22 21 21 22 21 21 19 19 22 21 20 18 16 16 18 17 5 7 5 13 6 7 11 11 11 18 15 25 7 3 6 7 9 11 5 16 15 6 7 8 7 10 11 6 3
22 23 22 23 22 22 22 21 19 21 23 20 18 15 13 13 13 6 4 2 19 11 4 7 7 8 8 8 8 26 19 8 6 14 6 8 13 1 4 10 8 9 9 12 14 3 5
23 23 24 25 24 25 24 21 22 22 23 20 17 14 12 12 7 5 5 21 20 3 5 4 5 2 8 12 3 7 27 5 9 9 8 9 8 12 13 14 9 9 7 10 8 6 1
24 24 25 26 26 26 25 23 21 24 21 19 17 14 12 11 13 17 17 19 3 1 8 6 4 5 7 7 5 4 11 1 7 4 3 12 3 8 10 8 13 8 3 4 1 2 5
25 25 25 26 27 25 23 23 24 25 22 19 18 16 16 15 4 6 12 7 3 6 6 6 2 4 3 5 5 3 8 10 8 10 11 6 13 2 4 5 5 5 3 2 3 2 8
26 28 27 27 27 26 24 25 25 27 23 20 18 16 20 21 19 14 6 3 11 4 7 6 6 9 4 5 4 2 7 8 7 3 4 9 6 14 6 13 4 7 10 5 6 4 6
27 27 28 30 28 27 26 27 26 25 23 20 17 18 20 21 18 8 1 8 5 5 4 7 8 3 4 4 2 2 1 5 9 8 6 6 6 4 9 9 11 5 6 10 6 1 1
29 29 30 30 30 29 28 27 25 23 22 21 16 11 16 18 17 8 3 15 9 1 7 4 4 5 6 7 5 4 3 3 2 10 8 3 2 4 4 5 7 9 4 2 2 5 7
32 32 31 32 31 28 29 28 25 24 22 21 18 4 12 20 20 3 8 9 11 15 7 5 2 4 4 4 5 4 1 3 4 6 2 7 4 7 7 5 6 2 4 4 2 5 8
37 36 35 33 32 32 32 29 28 25 23 23 6 5 24 33 6 4 13 11 11 3 3 9 3 5 5 3 4 3 3 2 4 3 3 2 2 9 23 14 3 5 7 10 7 4 4
37 37 37 36 35 34 33 32 32 29 27 7 3 3 25 28 11 12 9 12 10 2 1 1 5 3 2 3 4 4 4 6 7 5 3 5 4 4 8 6 3 9 6 5 2 2 12
40 39 38 39 39 38 37 36 35 31 30 27 4 5 4 7 2 16 13 15 13 12 16 6 3 4 3 3 3 4 5 6 10 1 2 2 1 4 4 8 5 4 9 15 11 8 7
43 43 42 43 40 40 37 35 36 34 34 26 4 4 5 7 15 8 17 9 20 12 12 12 9 16 8 4 3 6 5 4 5 1 3 3 2 7 13 15 16 19 10 12 18 12 11
44 43 43 40 41 40 38 38 37 36 35 25 4 4 4 1 15 20 18 19 19 17 8 12 8 6 6 14 11 5 7 3 4 4 4 4 3 2 4 12 20 18 18 23 11 5 7
46 44 43 42 41 41 40 40 39 38 37 12 15 7 3 9 13 16 24 21 16 15 12 17 12 13 10 12 10 15 8 7 7 6 3 4 3 0 6 10 18 7 14 15 17 19 6
47 45 45 44 43 42 41 40 40 40 41 26 12 6 5 6 15 18 16 21 23 18 19 11 17 8 6 3 5 5 6 11 10 9 5 6 5 4 3 2 5 7 25 17 18 19 13
44 44 44 41 38 37 38 39 40 41 42 36 17 10 7 12 9 16 16 17 19 18 17 18 9 8 5 3 2 5 3 2 7 7 8 6 4 3 2 2 8 12 6 13 10 17 13
26 33 35 33 28 25 27 35 44 42 42 42 28 18 3 6 14 10 14 16 11 14 11 13 6 3 2 0 1 4 3 3 1 4 4 5 3 3 3 3 6 2 5 16 15 16 6
25 26 27 27 29 30 31 30 30 30 33 44 14 29 5 2 2 9 7 11 10 11 5 8 11 8 7 2 2 5 5 3 4 8 4 3 1 5 4 4 7 7 6 6 2 5 5
27 27 29 30 30 31 31 32 34 34 32 29 10 35 17 3 2 3 4 3 12 13 8 6 5 3 3 6 4 4 3 5 6 5 7 7 7 4 2 3 8 4 6 7 13 13 5
30 29 29 33 33 34 35 33 33 33 36 35 6 28 25 2 1 6 17 18 11 7 12 9 7 6 5 4 2 3 3 0 4 4 4 6 7 5 9 6 3 6 6 11 11 14 16

GFSGBSN_925_spd_069.txt.gz
Wind_Speed
12 12 13 13 13 14 13 14 15 15 16 16 17 16 16 16 19 21 24 24 25 26 25 23 21 21 10 4 9 9 6 5 4 12 6 5 6 5 6 6 6 6 7 5 9 6 7
12 12 13 13 12 14 13 15 15 16 15 16 17 18 19 20 20 21 22 26 30 29 27 25 19 15 1 7 6 9 6 3 8 11 6 6 6 6 4 5 8 5 8 8 6 10 6
13 13 14 14 14 15 15 16 17 17 17 17 18 19 20 21 22 25 27 28 29 30 37 26 15 8 4 17 7 8 9 6 4 7 4 10 6 4 5 2 5 2 5 7 7 4 3
14 14 14 15 16 16 16 16 17 18 18 19 18 18 19 21 24 25 29 31 33 33 27 20 10 7 9 17 15 20 19 19 23 19 7 5 4 3 3 2 2 2 1 5 1 4 1
15 15 17 16 17 17 17 19 19 19 18 18 18 19 20 20 23 27 29 32 32 16 13 3 9 8 9 5 6 9 16 8 10 14 13 1 5 4 3 4 3 1 5 6 5 2 5
18 18 17 17 18 18 19 19 19 18 18 18 18 18 19 22 23 24 30 33 11 3 10 8 2 4 8 3 3 2 5 7 4 9 4 5 2 4 4 8 12 10 5 5 8 4 1
17 18 17 19 18 18 18 18 18 19 19 19 17 17 20 20 22 22 28 11 5 1 4 6 6 7 8 9 6 4 6 7 5 4 11 6 8 13 19 16 3 6 6 6 4 4 3
19 18 19 16 18 19 17 18 19 20 19 17 17 19 19 19 19 21 13 3 6 4 12 17 21 22 27 3 6 5 6 4 5 7 7 4 17 11 10 10 11 6 7 8 11 4 7
19 20 19 19 19 19 18 18 20 19 19 17 17 19 19 18 16 9 8 1 12 16 5 11 7 8 8 17 14 14 8 6 6 9 14 18 6 14 14 10 12 14 18 13 11 5 5
22 21 20 19 20 20 18 19 19 20 17 17 17 17 18 15 7 9 5 3 19 10 4 7 4 6 4 8 7 22 15 8 5 11 10 13 12 10 11 18 17 15 12 12 9 3 6
21 20 22 19 20 20 21 22 21 19 19 16 17 17 18 9 6 4 7 15 17 0 5 1 2 2 4 7 5 2 18 4 19 9 6 9 10 17 8 15 13 12 9 12 9 7 4
21 21 22 22 21 20 22 21 20 20 19 16 18 17 16 8 6 10 12 12 4 1 7 6 1 1 4 8 4 2 5 4 6 8 3 8 3 8 15 8 17 7 3 2 2 2 6
23 22 25 26 21 21 20 21 22 21 19 18 18 18 15 8 2 1 7 4 1 5 5 6 5 5 7 4 4 4 4 12 6 9 11 9 9 3 3 12 8 6 4 2 2 4 7
21 24 25 25 19 20 22 21 20 21 20 18 19 17 16 13 10 8 5 1 9 4 5 5 5 12 2 3 2 5 4 6 9 3 6 10 7 11 6 6 8 14 14 5 7 5 3
26 26 28 23 23 25 20 20 18 20 20 19 19 18 11 13 13 9 2 5 3 6 3 8 11 2 5 5 3 1 4 1 4 7 4 7 8 3 9 8 10 6 9 10 1 1 2
28 26 26 28 25 21 18 19 17 18 19 16 9 9 12 13 15 12 3 7 5 1 4 4 3 6 7 9 7 7 3 8 6 2 2 3 2 3 4 5 6 8 9 4 2 5 10
30 27 27 26 22 19 18 18 17 18 17 14 7 4 6 22 22 4 6 7 6 14 5 2 3 4 4 4 4 5 8 2 12 9 4 1 1 1 2 4 9 5 8 3 4 3 7
29 30 29 28 23 22 20 20 19 18 16 12 4 5 10 31 7 3 5 7 5 6 1 4 2 4 2 4 5 4 4 3 14 8 4 4 2 3 5 7 4 2 3 7 6 8 3
30 30 29 26 24 22 21 22 21 20 16 6 3 4 13 23 9 10 3 5 5 4 6 2 2 1 1 1 3 2 4 3 10 11 5 6 2 1 0 1 5 6 5 7 6 3 13
33 32 30 29 28 24 24 23 22 21 18 13 2 3 5 7 4 16 10 9 8 5 9 1 2 1 0 0 1 3 3 4 8 6 9 2 3 2 2 2 1 2 4 3 2 3 6
35 36 34 32 29 27 26 25 25 23 20 12 4 4 3 5 11 11 14 11 13 9 8 5 4 6 4 1 3 4 2 4 4 7 3 2 4 6 7 9 8 7 10 9 9 9 8
40 39 36 33 31 30 29 29 29 27 25 20 5 4 4 2 4 17 17 11 17 14 10 7 10 7 11 10 10 9 4 3 4 5 6 8 1 1 2 9 11 12 11 13 9 3 2
44 42 40 38 37 37 35 34 33 32 29 13 15 11 4 11 9 8 7 17 17 13 11 10 9 10 10 9 8 12 10 9 8 7 4 4 1 3 3 3 4 7 12 16 8 7 6
43 44 41 40 40 38 38 38 39 38 38 29 10 7 7 10 7 12 9 15 17 20 14 12 14 10 1 1 4 3 6 11 11 12 10 3 2 1 1 2 6 3 6 6 10 11 11
26 33 36 38 38 39 39 40 42 41 42 37 23 8 5 8 11 11 14 17 15 13 16 15 14 6 2 6 2 4 2 2 7 13 13 12 5 3 3 5 8 11 6 2 5 6 6
28 28 32 34 34 35 35 38 47 44 43 39 32 27 6 4 11 13 7 13 11 11 8 15 8 9 5 2 3 4 4 2 1 1 6 12 10 6 3 2 4 4 2 1 2 6 4
28 30 29 29 30 30 30 27 36 41 43 40 18 38 10 4 4 12 9 10 8 10 5 5 7 5 8 4 4 5 4 1 2 3 4 6 6 11 6 5 7 9 4 1 1 4 4
28 27 29 29 28 28 29 25 34 37 41 41 31 32 27 2 5 8 11 10 5 9 6 6 5 4 4 6 4 4 3 4 4 3 6 8 7 4 4 5 9 4 2 2 6 8 6
35 29 33 33 32 29 27 27 25 32 38 43 15 33 37 6 1 12 15 18 29 23 10 10 6 5 6 4 4 3 3 2 6 4 2 4 6 5 8 6 2 1 3 6 9 12 14

GFSGBSN_925_spd_072.txt.gz
Wind_Speed
11 11 11 11 12 11 12 13 15 16 15 16 16 16 18 19 19 19 22 24 25 25 25 24 25 19 11 5 12 10 7 0 9 10 13 14 14 15 15 12 13 19 16 13 14 14 13
12 11 13 12 12 12 13 13 14 14 15 16 17 18 18 19 20 21 23 25 26 26 26 27 19 12 8 11 7 6 5 4 9 14 12 12 8 13 8 13 15 4 14 17 16 14 14
13 12 11 13 13 13 13 15 15 14 15 18 18 18 19 20 21 23 25 28 28 28 30 26 15 6 9 18 6 8 7 7 9 14 14 14 12 10 6 11 15 12 15 15 16 18 17
15 14 13 13 15 14 15 13 15 17 18 17 17 18 19 21 23 24 26 30 31 32 23 16 6 7 9 15 12 18 15 19 15 9 8 11 14 15 11 3 5 12 12 14 8 10 7
13 15 16 14 15 15 17 15 17 17 17 18 17 18 18 21 23 25 28 31 32 17 10 2 7 7 9 6 7 9 18 14 15 17 13 6 10 15 12 14 13 13 14 13 12 12 6
15 16 15 16 13 16 16 15 16 16 16 19 18 17 18 20 22 23 27 29 11 2 3 5 1 5 9 3 7 3 7 10 7 14 12 13 10 12 14 15 19 17 16 14 14 7 11
16 16 15 16 17 15 15 14 15 16 16 15 17 17 18 20 21 21 24 12 4 6 3 8 5 12 13 6 10 9 6 9 5 17 19 20 15 19 25 22 20 15 14 15 10 2 8
17 18 17 17 15 13 16 17 14 15 19 16 15 16 17 18 19 20 12 5 4 4 12 17 22 24 31 24 10 12 11 9 10 16 20 11 21 21 18 16 20 19 16 17 12 6 9
18 18 19 19 16 14 14 16 13 16 16 15 13 15 15 18 16 7 6 2 4 12 7 9 9 9 6 18 16 18 12 12 11 19 18 21 11 19 17 17 18 21 20 17 16 6 12
19 20 20 18 18 16 14 17 14 18 17 15 14 14 15 16 6 7 2 4 12 8 5 2 2 3 5 7 7 26 17 8 11 17 15 15 20 11 19 23 20 21 19 17 17 9 10
22 21 18 19 18 15 16 15 15 19 15 15 13 14 13 12 8 7 7 12 11 5 6 3 3 1 4 7 9 4 20 18 15 12 8 10 13 20 20 20 20 20 15 11 17 16 15
20 18 19 20 20 18 18 17 16 15 18 16 13 13 13 8 3 8 10 11 6 5 6 1 2 3 5 10 4 5 3 15 11 18 15 15 8 10 19 14 15 4 8 8 7 9 12
24 23 21 19 19 22 20 14 14 17 16 15 15 13 11 9 3 3 8 6 5 6 3 2 4 7 10 4 4 6 8 15 10 9 13 14 17 12 12 17 15 16 11 6 8 7 8
21 21 19 19 20 21 14 15 17 17 16 16 15 14 12 12 6 9 6 5 9 2 5 6 6 12 3 5 2 7 6 8 15 12 9 11 12 20 13 14 10 21 19 7 9 9 7
24 23 23 22 21 19 18 17 15 14 15 14 14 13 10 11 12 10 3 9 4 6 2 6 9 4 2 4 5 6 5 2 2 16 8 12 15 14 15 14 13 15 20 16 15 5 5
25 24 22 24 22 20 21 17 14 12 12 10 9 8 14 12 15 10 4 15 7 3 3 3 4 4 3 8 4 4 3 10 6 1 12 4 6 13 18 15 19 13 10 7 10 10 15
27 25 24 23 23 19 17 14 13 10 11 8 7 4 6 17 17 4 8 9 13 13 4 4 3 4 3 4 7 5 6 6 13 11 7 8 4 5 6 14 18 14 12 10 7 12 10
26 26 23 23 22 23 20 14 13 12 11 7 4 4 5 18 7 3 9 9 6 11 8 8 4 7 6 4 4 6 2 5 12 14 4 4 3 5 7 6 3 13 18 17 11 12 8
28 27 25 23 23 22 19 18 15 16 14 8 4 6 8 16 7 7 5 13 17 15 11 5 7 6 3 4 4 2 3 3 6 10 8 7 2 6 10 6 2 8 2 5 6 8 14
27 24 24 24 24 24 21 20 17 19 18 13 2 3 7 7 8 16 18 15 6 13 14 8 7 4 6 10 8 5 3 4 12 9 10 3 4 4 3 2 3 4 3 2 5 7 11
31 31 30 28 27 26 24 23 21 23 18 14 5 6 6 5 9 9 16 10 21 16 13 12 9 15 14 11 10 11 10 8 5 7 4 4 6 7 6 4 4 6 7 6 9 8 9
39 39 38 35 33 29 27 25 25 25 21 16 4 5 4 8 9 10 9 16 23 21 15 12 13 8 14 16 12 8 6 7 7 3 5 5 5 5 9 8 10 13 13 12 12 11 11
36 36 38 41 40 36 31 31 31 31 28 12 12 11 4 7 14 12 10 18 18 20 16 17 11 11 13 14 11 10 9 10 11 8 4 4 3 5 9 3 7 10 17 18 16 12 11
35 28 30 37 44 40 36 35 34 35 35 26 10 9 7 11 11 13 19 15 20 20 20 14 14 11 2 5 5 9 10 11 12 14 12 6 5 2 2 4 6 2 1 4 8 11 10
31 29 29 27 27 38 38 38 38 38 38 33 26 12 7 12 15 22 21 11 17 19 19 17 12 7 6 4 3 5 6 7 11 17 15 14 8 3 4 9 13 16 10 8 7 2 3
33 28 25 25 25 32 35 38 39 40 43 39 33 27 7 4 17 23 19 14 10 12 15 18 5 9 6 3 4 4 5 3 5 6 13 14 13 8 5 5 5 3 3 3 2 4 7
31 28 25 25 28 30 32 34 34 36 39 41 22 38 17 8 11 8 14 15 10 6 6 6 7 5 7 5 6 6 6 2 4 5 5 8 10 13 11 7 4 8 6 4 5 4 11
33 30 28 26 26 29 30 31 31 32 37 45 30 39 29 7 14 17 20 17 13 13 9 5 4 3 3 7 5 4 5 7 6 3 7 8 9 7 9 8 9 3 3 7 7 9 12
32 33 34 28 25 28 29 29 30 32 28 43 13 33 40 10 3 19 31 23 20 16 7 10 5 5 6 7 6 4 4 3 8 7 13 6 7 5 8 8 4 3 3 8 8 9 11

GFSGBSN_925_spd_075.txt.gz
Wind_Speed
10 10 8 10 11 11 10 11 13 14 14 16 17 17 18 18 18 20 22 24 25 25 24 23 24 22 14 8 21 15 9 6 5 14 18 17 19 19 22 19 21 21 21 20 16 16 15
10 11 11 10 10 12 12 12 15 15 14 15 18 19 19 19 20 22 24 26 27 27 27 26 24 15 9 17 16 9 9 8 12 15 16 19 16 17 18 20 20 17 17 19 22 19 15
13 13 12 12 11 13 13 13 14 15 17 17 19 19 19 20 21 23 26 27 28 29 28 27 18 9 11 24 9 9 12 11 12 16 17 18 18 12 12 18 17 18 18 20 18 18 19
14 13 14 14 13 13 16 15 15 15 18 18 19 19 19 19 22 24 26 29 30 31 25 16 11 11 9 14 14 18 21 22 19 16 18 19 16 16 19 16 14 14 18 19 19 22 19
15 14 15 15 15 14 15 18 18 19 17 16 19 19 19 19 22 25 27 29 29 20 8 5 6 10 10 3 9 12 17 20 15 17 17 15 14 18 19 18 17 18 16 20 19 11 10
16 15 15 15 14 16 16 18 16 17 18 16 17 17 17 20 22 24 29 25 15 7 1 6 9 6 9 6 5 8 5 10 12 11 14 15 12 18 19 18 20 21 20 19 19 13 13
17 16 16 17 16 15 15 13 16 15 15 17 16 17 17 19 22 22 23 22 3 7 8 13 12 14 17 13 9 10 8 8 8 7 15 19 16 23 26 28 25 22 21 16 11 8 9
18 17 18 17 18 17 15 15 16 14 15 16 15 15 16 18 19 18 14 6 5 4 12 21 23 23 28 26 16 16 12 11 12 14 11 18 25 25 24 24 23 24 23 21 17 10 6
19 18 17 17 18 18 17 14 17 13 15 20 17 15 15 17 18 11 6 4 4 11 8 12 7 8 5 8 17 21 19 19 13 16 16 21 26 26 24 22 23 21 23 20 18 16 11
18 17 21 20 19 17 17 15 15 13 16 17 15 14 14 16 11 8 5 4 7 7 6 8 4 2 5 4 6 11 20 19 17 16 13 12 27 27 23 27 20 22 20 20 18 14 15
22 22 21 21 17 17 17 15 16 15 16 15 15 14 12 10 12 10 5 9 7 4 6 3 6 4 1 7 10 5 12 16 19 18 13 13 20 23 24 19 23 22 16 19 16 15 18
19 19 20 20 21 20 17 18 16 16 15 16 17 14 12 12 13 9 8 10 8 5 6 4 3 1 6 11 8 5 4 15 10 14 13 13 21 16 17 20 18 21 17 14 13 14 16
20 22 22 20 21 18 17 18 20 16 15 16 14 12 12 12 7 3 6 9 6 6 6 3 0 4 10 9 6 9 7 13 13 13 18 15 23 26 18 12 18 23 17 10 11 13 14
19 19 21 19 19 19 18 19 12 16 17 14 14 14 14 15 13 10 6 5 9 3 6 3 5 10 10 5 6 8 10 11 16 15 12 17 18 27 18 19 13 17 17 9 13 10 14
22 22 22 22 20 19 19 16 17 15 14 12 13 14 17 17 16 11 5 9 4 10 7 4 11 10 7 4 5 5 10 7 6 19 10 12 22 11 20 20 15 13 19 21 19 11 6
23 22 21 21 20 18 19 16 17 17 14 9 11 10 17 13 15 12 5 14 12 5 5 7 11 2 7 2 8 6 9 6 1 11 18 10 10 15 13 17 22 22 15 15 12 11 13
23 24 22 22 21 21 18 17 13 12 11 7 10 3 5 18 16 5 9 14 14 15 4 7 8 7 8 3 7 5 1 1 10 8 10 14 11 2 13 14 20 15 17 15 16 13 5
25 24 23 22 21 22 18 18 16 14 10 7 11 4 6 18 8 3 10 16 18 11 13 13 8 10 11 7 6 6 2 4 7 12 7 10 5 8 15 18 23 18 19 18 9 13 11
24 24 24 25 23 20 19 17 16 17 14 11 4 8 7 14 7 10 12 19 17 16 18 15 15 13 12 10 5 6 5 6 5 7 8 8 8 8 11 8 11 14 18 21 18 15 13
26 25 25 24 20 22 19 19 17 20 18 14 3 4 8 7 6 9 15 18 17 15 22 19 16 13 15 16 13 7 7 1 6 6 8 6 9 12 8 6 3 12 8 13 10 9 11
28 27 26 25 24 25 24 21 20 22 20 16 5 5 6 7 13 17 15 7 20 18 16 12 16 19 17 16 16 16 15 12 8 2 6 3 6 11 7 8 3 6 7 10 13 14 12
34 35 34 31 31 30 28 26 24 25 23 20 4 5 7 11 8 9 18 16 19 19 20 18 18 18 20 20 18 15 9 2 9 4 4 3 9 7 13 6 7 10 12 11 12 11 12
36 34 32 32 32 32 32 31 29 28 27 15 9 18 6 8 15 13 11 15 18 16 14 17 17 17 14 13 11 11 11 9 11 8 8 6 7 9 11 9 7 10 15 16 14 15 13
34 32 30 29 24 32 34 37 36 35 34 27 16 15 6 9 12 14 17 15 16 10 17 14 19 15 4 5 8 9 11 13 14 15 12 9 10 7 7 1 10 6 1 4 10 13 13
34 31 28 28 24 25 30 37 41 38 39 31 28 12 7 9 15 18 20 16 10 10 13 14 24 6 2 3 5 9 10 11 15 17 16 15 12 5 5 9 13 15 11 10 9 8 3
32 30 29 28 26 25 26 29 46 40 39 34 30 27 7 5 15 20 18 20 14 8 9 17 5 7 2 1 4 6 7 9 9 8 19 16 15 9 6 11 10 6 4 4 3 7 8
30 28 28 27 25 23 22 25 38 39 39 35 24 34 15 4 15 9 14 13 14 9 5 9 5 4 4 4 5 7 8 3 4 8 12 11 10 14 12 9 7 3 5 2 11 5 3
33 32 32 29 25 23 24 27 36 40 39 35 32 29 26 5 16 19 19 14 10 10 8 1 4 2 2 5 5 5 5 6 6 3 10 11 9 7 9 6 15 8 5 7 8 4 8
35 34 29 26 23 26 26 30 33 36 40 44 16 37 37 9 7 19 30 26 24 7 6 7 5 3 7 6 7 4 4 3 8 8 11 7 8 8 10 8 4 2 7 7 8 8 10

GFSGBSN_925_spd_078.txt.gz
Wind_Speed
11 12 13 12 10 11 12 12 14 16 16 15 16 18 19 19 20 20 22 23 24 24 24 24 23 23 13 7 18 25 17 9 3 8 15 15 19 19 22 20 21 24 24 21 23 22 17
13 13 13 13 12 12 13 14 14 15 15 18 20 20 20 19 20 22 24 25 26 25 25 24 22 17 6 16 16 15 11 9 11 12 16 18 16 18 19 21 22 23 22 23 24 20 20
13 14 15 14 14 13 12 16 17 15 17 17 21 21 21 21 22 25 27 28 28 26 27 24 18 6 11 25 16 22 17 11 14 15 14 16 19 19 16 20 21 19 22 22 21 19 19
13 14 15 15 15 19 16 15 16 19 18 19 18 21 22 22 22 27 30 31 30 29 23 17 7 7 10 14 16 19 16 20 18 17 15 16 17 16 19 16 21 20 18 19 22 23 23
14 16 15 16 16 18 17 17 17 19 19 19 20 20 20 22 24 28 32 33 30 20 16 8 6 10 9 7 9 6 10 16 17 18 20 18 14 14 15 16 16 16 18 24 22 23 22
15 16 16 16 17 18 18 18 16 17 19 18 19 20 21 23 25 28 31 35 22 22 9 8 13 8 9 8 2 6 7 6 10 13 13 13 9 15 16 15 17 20 20 22 22 22 20
15 16 17 18 18 19 20 19 15 17 18 16 19 20 20 22 24 26 31 21 2 6 15 15 7 13 15 14 19 9 8 4 7 10 16 16 14 20 21 22 24 21 20 25 23 20 20
15 17 17 17 18 18 20 20 18 17 18 15 20 21 21 21 23 27 24 8 5 6 12 20 26 25 29 25 13 15 11 9 11 13 13 14 21 19 22 23 26 26 25 26 26 21 6
17 16 16 16 18 21 22 20 20 16 18 15 18 18 20 20 22 20 11 6 8 12 6 14 15 14 10 7 13 16 16 16 16 15 16 16 17 16 18 24 25 24 21 21 26 22 18
18 18 19 19 20 21 20 19 18 16 16 16 16 16 18 19 15 14 10 5 11 8 5 9 9 6 7 4 4 3 12 16 19 21 16 14 12 16 13 21 24 24 22 25 22 17 14
18 19 20 19 18 18 19 19 19 18 16 17 15 15 18 13 16 13 15 12 10 3 5 10 8 8 4 5 6 9 1 12 20 18 14 14 11 15 16 22 25 27 21 18 22 20 18
19 21 20 20 19 20 21 20 18 17 18 17 17 16 17 15 10 17 17 14 10 4 6 7 8 8 8 12 9 5 1 8 9 20 15 18 10 8 13 20 21 25 23 17 24 16 16
22 21 17 18 20 18 19 17 19 20 19 17 17 16 15 14 13 8 11 8 5 7 4 10 5 2 5 8 6 10 9 8 8 9 17 18 18 10 12 17 21 24 13 4 6 12 13
20 19 18 20 20 19 20 20 21 20 12 16 18 15 16 18 17 16 12 5 10 8 8 6 1 5 9 4 7 10 8 9 15 15 10 11 14 20 13 19 16 16 16 5 6 7 13
20 19 20 22 23 20 21 18 20 15 15 16 14 17 19 20 19 17 5 9 5 13 9 7 3 10 12 8 4 6 9 14 4 17 8 5 14 11 11 17 17 11 16 22 17 9 6
21 21 21 21 23 20 18 17 17 17 16 13 13 17 19 21 21 15 6 11 11 13 5 3 7 7 9 2 2 11 11 8 4 5 14 7 12 8 13 16 21 23 12 11 4 5 6
21 21 22 23 22 22 21 19 16 17 11 7 13 6 18 23 18 5 10 14 15 19 9 4 9 14 7 10 2 13 3 5 8 9 12 12 11 7 1 11 16 15 16 5 4 8 3
21 21 22 23 22 19 20 17 16 14 10 9 12 4 4 24 7 3 6 16 16 16 12 13 11 13 12 12 8 8 8 4 2 7 10 10 5 10 14 13 15 18 18 19 7 4 7
22 22 22 22 22 21 20 20 16 14 13 10 4 9 18 13 7 10 9 15 20 18 17 17 11 15 15 13 13 9 13 8 3 6 7 9 4 7 5 8 11 11 15 14 14 11 4
23 23 22 21 22 21 20 18 17 15 13 17 4 3 8 6 8 11 13 17 18 19 19 18 17 16 15 16 15 14 10 4 1 5 2 3 7 10 9 3 3 10 14 14 13 13 10
25 24 23 23 24 23 21 20 19 16 14 13 4 5 3 6 11 13 16 8 13 17 17 15 16 20 16 15 16 17 18 18 14 6 5 7 7 11 13 10 11 4 12 11 13 14 9
26 26 28 29 29 27 26 25 24 21 18 14 3 4 10 10 13 14 17 18 18 16 14 16 17 16 16 18 17 15 19 9 8 4 7 9 8 9 14 10 10 16 11 13 12 18 9
27 29 33 32 29 25 26 30 31 27 24 8 12 20 3 8 14 11 10 15 20 17 15 13 12 17 16 18 4 14 8 5 12 12 7 11 5 8 12 8 13 9 11 11 10 9 9
29 31 31 29 28 28 24 30 35 32 30 22 15 12 6 11 11 12 15 16 13 13 17 14 11 5 6 21 5 8 12 12 10 17 11 11 11 8 8 8 7 10 10 4 8 14 15
32 31 28 28 27 24 22 19 34 35 34 29 26 12 5 9 13 15 16 15 10 13 12 14 11 7 4 20 4 4 9 12 18 19 17 15 12 7 8 7 12 15 6 3 7 8 11
33 28 28 26 25 25 23 21 25 36 36 34 30 23 6 4 12 18 15 16 12 11 10 12 3 3 2 2 1 4 6 11 8 7 21 17 13 10 5 7 6 7 15 3 5 7 11
30 28 27 27 26 26 24 21 24 31 40 37 23 29 12 6 13 13 11 10 12 10 6 2 2 2 1 1 2 5 11 12 9 10 13 14 11 12 9 7 5 6 10 8 11 4 8
31 30 29 29 29 28 24 23 25 26 40 42 29 23 23 3 13 17 17 15 11 8 5 2 1 2 3 4 3 6 6 7 8 7 9 11 9 6 7 6 12 6 6 8 10 10 9
32 31 34 32 29 24 21 23 23 20 37 38 16 25 20 6 6 11 26 32 21 16 2 3 2 2 2 4 4 4 5 3 7 5 15 5 8 6 9 7 8 6 13 8 8 8 11

GFSGBSN_925_spd_081.txt.gz
Wind_Speed
11 12 13 13 12 12 13 13 15 17 16 17 20 23 23 23 22 22 24 26 27 28 27 26 24 24 15 5 13 15 22 15 2 4 10 9 9 8 12 9 11 15 17 17 17 15 14
12 14 14 14 15 14 14 14 16 18 18 19 20 23 25 24 24 24 27 29 31 30 29 27 24 19 6 10 13 10 10 11 8 10 10 12 8 10 11 13 14 10 13 16 12 12 14
11 12 13 15 15 15 18 17 18 18 18 23 21 22 22 26 25 26 28 31 34 33 30 28 21 11 10 23 11 18 15 15 12 13 6 19 23 11 7 11 14 13 14 13 8 10 7
13 14 15 15 16 16 18 18 18 18 18 19 20 22 25 24 26 27 31 33 38 35 30 20 14 8 9 14 16 21 18 17 13 19 18 19 17 4 4 7 8 6 7 8 11 11 12
13 14 16 16 16 18 20 20 20 19 17 20 20 22 23 26 28 30 32 37 38 35 21 11 6 8 10 14 6 9 13 11 15 15 18 16 9 4 6 4 5 3 6 15 11 9 13
15 14 15 17 17 18 19 20 21 22 18 20 20 21 23 27 29 31 34 38 29 10 7 7 10 5 10 6 1 0 5 4 3 5 6 8 3 4 2 2 8 6 9 10 14 19 17
17 15 15 17 18 17 17 19 21 22 21 20 19 20 25 26 29 30 33 20 4 3 4 8 11 7 8 14 16 11 18 10 4 4 6 5 4 6 7 9 12 13 16 17 15 17 17
15 16 16 16 16 18 19 21 23 22 20 18 20 22 25 25 28 28 26 3 5 7 11 17 26 25 30 19 11 11 16 4 6 7 7 5 11 9 8 11 13 10 17 20 18 23 17
16 15 16 17 18 20 21 21 20 20 19 18 18 21 22 25 27 19 15 18 13 10 5 14 17 12 11 15 10 14 12 6 6 9 8 9 3 8 3 9 12 14 17 18 20 27 20
14 16 17 17 18 18 18 18 19 19 18 18 18 20 21 24 15 20 11 22 18 9 4 7 7 7 9 3 6 17 14 11 6 8 6 8 8 6 4 8 6 16 13 16 20 19 8
15 17 18 19 19 19 21 23 22 21 19 18 20 18 18 18 20 8 14 24 22 2 4 10 8 12 8 7 1 4 1 5 8 8 6 5 5 2 5 10 9 11 7 12 12 15 13
19 19 20 19 17 18 19 18 19 17 18 20 20 17 17 20 12 20 22 24 10 3 7 6 6 7 8 9 5 6 5 1 6 5 8 5 4 6 3 1 2 6 9 8 10 8 6
18 18 18 17 16 19 20 19 20 18 21 22 16 16 18 15 9 17 22 10 3 5 10 8 5 12 13 7 15 10 8 5 4 4 5 4 6 5 5 3 2 3 9 3 5 5 7
19 20 19 18 19 20 21 21 20 19 21 19 20 16 21 20 20 19 18 3 8 9 9 4 4 3 5 9 10 10 9 6 8 3 2 5 5 11 9 9 7 5 3 3 4 3 2
19 19 19 20 20 20 20 19 19 19 18 17 14 20 20 25 18 16 4 5 4 4 9 10 3 1 6 12 3 2 10 7 4 9 5 2 6 2 10 7 11 3 7 6 6 3 2
21 21 20 20 21 21 21 20 18 18 17 15 14 14 24 26 18 12 5 9 9 9 15 14 5 6 8 9 4 0 0 5 3 5 3 2 5 6 7 6 12 11 1 2 3 3 3
20 22 20 21 21 21 22 20 17 17 15 10 4 3 14 9 15 3 7 7 11 16 15 9 7 9 11 11 7 3 4 3 7 6 3 5 7 5 8 6 11 6 9 4 4 4 2
23 21 21 21 21 21 20 18 17 14 11 5 2 3 6 18 5 2 6 4 8 16 17 10 8 6 9 12 6 6 3 5 6 3 4 4 4 4 9 10 11 13 13 13 2 2 4
21 22 21 21 20 19 18 18 16 12 9 3 2 4 8 2 5 5 3 12 16 18 16 7 7 8 7 9 5 5 7 9 6 4 3 3 3 4 5 3 5 5 12 16 7 7 3
23 22 23 21 20 19 19 17 17 12 8 4 3 3 2 4 2 3 8 11 14 11 14 16 13 13 11 8 8 5 8 1 6 4 8 4 2 2 6 4 1 4 9 12 12 3 4
25 25 22 21 20 19 20 21 17 13 10 7 2 4 3 3 2 5 7 6 6 12 14 13 7 12 12 8 7 6 8 7 2 3 6 6 5 4 9 12 8 7 8 6 11 12 6
24 24 25 23 22 23 24 22 19 17 12 8 2 2 3 5 8 8 9 4 13 14 11 10 8 8 9 7 7 8 5 6 3 6 7 6 5 5 8 10 13 7 9 8 3 3 8
25 26 25 24 25 25 24 21 21 22 19 6 6 11 1 5 6 3 4 7 9 11 9 9 10 10 12 6 6 8 1 3 1 1 4 4 4 3 4 8 6 5 9 10 12 16 14
27 26 25 26 26 24 23 22 23 25 28 17 10 4 2 5 4 7 14 11 11 12 9 7 4 4 4 4 5 5 5 6 7 7 6 4 6 3 3 7 5 6 6 10 12 8 9
27 25 25 27 25 24 25 21 18 20 30 26 19 4 2 3 6 12 14 11 7 7 6 6 6 4 4 5 1 5 4 4 6 13 11 8 4 2 2 3 9 14 2 3 1 3 7
27 27 28 27 25 22 19 18 17 15 29 31 25 22 4 2 5 12 12 8 5 5 6 7 4 4 4 1 3 3 4 5 4 5 18 14 6 5 2 4 5 10 5 9 2 3 11
29 30 28 26 24 22 21 20 18 16 24 34 16 28 10 3 6 7 3 5 6 8 4 3 3 3 1 2 1 3 3 4 3 4 2 10 5 12 7 4 7 4 4 6 4 2 10
33 31 28 27 27 24 23 21 21 20 21 35 29 21 23 3 7 7 9 8 6 3 2 5 3 1 1 1 2 4 2 4 3 2 8 7 7 5 4 4 7 7 3 3 3 8 12
34 31 30 29 27 28 27 23 21 21 23 32 13 31 22 5 3 10 13 18 16 15 5 1 3 3 1 2 1 3 2 3 3 3 8 3 4 4 7 6 3 10 12 10 9 11 13

GFSGBSN_925_spd_084.txt.gz
Wind_Speed
11 11 11 12 11 14 14 14 17 19 20 22 23 26 26 26 26 26 29 30 32 29 28 28 24 21 13 4 13 13 12 14 11 12 12 7 7 7 7 5 5 6 11 16 14 17 15
9 10 11 13 13 14 15 16 17 19 20 22 24 24 25 25 26 27 30 32 33 33 30 27 22 16 3 10 11 7 10 17 13 14 7 9 6 9 3 7 8 6 12 18 15 16 14
10 11 12 13 14 14 15 17 17 18 19 20 21 23 25 26 27 30 34 35 36 35 34 27 20 12 9 23 9 6 24 16 11 18 5 13 16 4 3 4 6 12 12 12 10 8 4
11 11 12 14 15 16 17 19 20 20 21 19 19 22 24 27 30 31 35 39 40 38 36 28 12 8 10 18 19 24 20 23 18 15 17 14 9 6 6 5 5 4 3 5 5 2 6
11 13 12 13 14 16 17 18 19 19 20 22 19 22 23 27 33 35 37 41 42 36 25 8 5 6 12 13 8 17 17 10 9 11 8 10 2 6 2 4 2 2 7 8 7 3 3
13 14 14 13 15 16 16 17 19 23 24 22 19 20 23 27 32 34 37 42 20 6 6 7 4 3 10 4 4 5 3 12 3 1 3 3 1 3 2 4 10 7 5 5 3 4 6
12 13 13 14 14 15 16 18 19 23 23 21 18 19 23 27 31 33 38 18 6 3 0 8 7 8 11 8 8 8 8 7 3 3 5 2 3 6 10 7 5 4 8 9 5 7 12
12 14 13 14 15 16 18 19 20 19 18 19 19 20 22 26 30 33 16 5 11 18 11 13 21 24 37 16 9 14 5 3 4 5 2 3 7 6 6 6 7 8 7 7 7 2 7
13 12 14 16 16 17 17 16 17 19 19 19 19 20 24 25 30 15 25 10 24 25 5 13 11 10 12 11 11 17 6 4 3 4 5 5 7 10 8 8 10 8 7 5 8 7 4
13 13 14 16 18 18 18 18 19 20 19 20 20 21 21 23 16 21 17 26 26 17 5 9 7 8 8 7 5 16 12 6 5 7 4 6 13 8 6 6 5 4 3 3 6 5 3
15 16 17 18 19 17 16 17 18 19 18 17 18 21 19 15 19 7 14 30 32 1 4 4 7 13 11 9 4 4 9 3 7 4 6 6 4 5 4 5 3 2 5 3 1 3 7
13 14 16 17 17 17 16 19 20 20 20 19 20 20 17 17 13 21 18 31 10 2 8 5 4 8 9 7 1 4 3 4 4 4 5 6 3 3 7 3 4 6 4 4 4 2 8
13 14 16 17 16 17 18 19 21 20 21 20 21 19 17 14 8 16 20 12 3 6 9 4 6 8 11 7 6 6 6 6 5 5 6 2 5 3 4 6 3 5 5 3 5 6 11
13 14 15 15 17 18 19 19 20 20 20 20 20 19 21 25 25 16 11 3 8 7 8 16 8 10 8 7 8 12 8 5 4 3 3 6 3 9 5 7 6 5 8 3 5 5 2
15 16 17 17 17 18 19 20 20 20 19 19 19 19 16 27 18 10 3 6 4 3 5 12 14 2 1 4 4 9 12 3 5 9 6 4 4 1 5 5 10 6 5 5 5 3 1
17 16 16 17 17 18 19 20 21 20 18 17 13 10 15 17 11 10 4 6 7 8 13 10 5 9 7 9 9 3 4 4 3 2 1 1 2 3 5 6 1 4 6 2 4 2 3
16 16 17 16 18 18 19 19 19 17 16 13 7 4 11 10 16 3 3 6 8 10 14 10 7 6 7 7 7 9 4 4 5 5 6 3 3 6 2 4 9 5 2 5 3 4 2
17 18 17 16 17 18 19 17 17 15 12 6 3 3 3 13 3 2 1 2 7 11 7 5 6 3 4 7 5 5 6 3 5 2 2 1 1 3 8 7 8 11 6 6 3 2 3
17 18 16 17 17 18 17 18 16 13 7 2 2 3 7 8 2 4 4 11 9 11 12 5 6 8 9 4 5 4 4 2 6 3 4 1 1 3 6 4 7 5 4 4 9 3 6
18 17 16 18 18 17 16 16 14 10 5 4 2 3 3 2 3 3 4 7 6 7 10 8 7 7 4 6 4 5 5 3 4 2 4 3 3 4 3 2 3 5 6 10 8 3 2
17 17 18 17 17 18 17 16 18 12 6 6 1 3 4 2 2 4 7 3 3 3 5 5 3 1 6 3 7 4 4 4 6 7 3 3 2 3 5 7 8 11 12 8 8 10 5
18 18 19 19 19 19 18 19 19 14 9 8 2 2 3 3 6 4 3 2 4 6 7 7 5 9 5 3 2 4 7 3 2 4 3 4 2 5 5 6 10 10 16 9 10 5 4
17 19 18 20 20 19 20 21 20 16 14 5 8 4 1 3 4 4 3 10 13 11 5 6 8 2 5 2 4 6 5 7 4 1 1 2 3 5 4 4 7 5 12 13 10 8 10
22 19 20 21 20 20 22 21 19 17 19 14 8 5 2 3 2 3 11 14 13 10 4 8 5 3 4 4 5 3 4 6 6 7 5 4 4 3 4 5 4 5 18 12 14 8 16
18 19 21 20 20 21 22 20 19 16 16 17 16 4 2 2 3 5 8 8 8 10 6 5 9 1 3 4 3 4 4 3 6 9 9 8 4 2 3 3 7 18 6 5 3 1 12
19 20 20 21 23 23 20 19 16 13 14 27 18 23 1 1 4 5 2 3 2 4 6 3 5 2 4 2 2 2 3 3 3 4 11 8 5 4 2 3 3 7 9 7 9 2 12
20 21 21 22 24 23 20 19 16 14 13 25 11 27 6 4 4 1 1 2 1 3 3 3 7 7 3 2 2 3 3 2 3 3 1 2 1 11 4 4 6 9 13 11 4 3 5
22 23 23 25 24 23 21 21 18 17 15 24 16 25 20 3 6 4 2 2 2 2 2 4 4 2 2 1 2 3 2 3 2 4 3 4 5 4 4 4 9 11 9 4 4 9 10
23 24 26 26 24 23 23 22 21 20 20 21 8 25 32 3 3 2 12 19 18 11 2 1 1 1 3 2 1 1 2 3 2 3 2 4 5 3 5 5 6 10 11 9 7 9 8

GFSGBSN_925_spd_090.txt.gz
Wind_Speed
5 6 8 9 11 11 12 14 16 17 18 20 22 23 23 25 26 27 31 35 34 33 30 26 22 18 13 3 11 20 25 10 3 7 9 5 5 6 6 5 5 4 4 6 12 8 7
4 5 6 8 9 11 12 13 15 16 17 19 21 23 24 25 27 29 33 39 41 40 35 28 22 14 7 15 16 10 9 9 2 7 7 8 7 8 4 5 6 3 12 16 11 10 5
4 5 6 7 9 10 12 13 14 16 18 20 23 23 25 24 28 32 37 44 46 45 41 32 21 12 12 25 16 15 28 27 18 12 4 14 13 3 5 4 6 9 11 8 7 6 7
3 6 7 7 7 10 11 13 14 16 19 22 21 22 25 27 31 34 40 44 47 40 30 20 12 9 10 17 24 29 26 26 26 22 20 13 10 6 4 5 5 2 5 4 4 8 7
5 5 6 6 7 9 11 13 15 17 18 19 20 22 24 27 30 35 41 48 37 20 13 5 7 7 11 8 9 17 19 12 5 14 17 8 6 6 2 4 3 2 3 4 4 8 4
2 4 6 7 8 10 12 14 15 15 17 19 21 22 24 27 31 36 41 38 18 4 7 4 4 3 8 4 12 12 8 11 6 6 3 5 3 5 3 4 7 6 4 4 4 3 2
3 5 5 7 9 10 13 13 14 16 18 18 20 22 23 25 29 32 32 23 6 4 10 9 16 19 28 15 12 9 8 4 4 4 7 6 4 8 8 10 5 2 3 4 3 6 4
4 4 4 6 9 11 13 12 13 14 16 18 21 22 23 25 29 31 15 5 8 10 15 14 24 26 34 25 14 23 6 4 5 6 6 3 12 8 8 6 5 5 5 5 5 5 3
3 5 6 7 10 11 12 12 13 14 17 19 21 23 24 28 29 8 26 6 27 23 7 18 15 12 9 18 15 23 4 3 4 7 7 7 3 9 12 6 7 5 5 4 5 4 4
5 5 6 7 9 10 11 12 13 15 18 20 20 21 24 27 8 23 15 26 31 22 5 10 5 7 5 6 8 23 18 7 3 9 6 4 5 4 5 6 7 6 7 6 3 2 4
4 5 6 8 8 10 11 12 13 16 18 19 20 21 21 18 17 7 16 26 33 2 5 4 3 4 8 9 3 8 19 5 7 6 6 6 3 5 4 6 8 5 5 6 3 3 2
6 6 5 7 9 9 11 13 14 16 17 20 20 20 21 18 15 17 16 30 8 4 7 7 1 2 4 8 3 7 7 2 5 4 1 7 1 4 4 4 4 9 5 4 3 2 2
6 7 5 7 8 10 11 13 15 17 18 20 20 20 21 18 7 16 20 10 2 5 8 7 10 8 13 4 3 7 12 7 6 6 5 2 2 2 5 7 4 3 5 3 5 2 4
7 7 7 9 10 10 11 13 15 17 18 19 19 23 23 22 20 15 9 3 7 6 8 13 10 22 7 4 3 4 10 4 2 4 4 6 2 8 4 4 6 2 4 4 4 3 3
7 9 9 9 9 10 11 13 15 17 17 18 20 19 16 13 11 3 3 2 3 2 7 11 17 12 2 4 2 4 4 5 7 6 4 5 1 2 3 4 5 2 3 2 3 3 1
9 8 8 9 9 10 10 12 14 15 16 16 14 9 8 16 1 8 2 6 5 8 14 8 5 6 7 8 4 3 4 4 1 6 2 4 5 4 2 5 9 3 7 4 2 3 4
9 9 8 9 12 9 10 12 13 14 15 15 6 3 3 10 7 2 3 5 8 12 10 7 8 5 9 7 5 2 6 3 6 3 3 2 3 1 4 2 6 2 3 5 3 2 2
9 11 9 9 11 8 9 11 12 13 11 7 3 3 1 8 2 1 2 3 6 9 10 2 6 4 4 9 10 6 6 6 8 1 4 3 3 3 4 4 4 4 3 4 3 3 4
10 12 9 9 8 8 9 10 11 10 8 2 3 2 5 3 3 3 5 6 8 8 7 1 4 3 7 6 6 8 6 12 8 5 1 2 3 3 3 3 7 6 2 4 3 1 4
10 13 9 9 8 9 9 9 10 8 6 1 2 3 3 1 1 4 4 6 5 6 11 5 4 6 2 6 6 6 5 4 5 4 12 6 4 5 3 3 1 2 3 2 4 3 4
11 12 9 9 9 8 8 9 10 7 4 3 1 2 1 4 3 6 9 7 12 1 1 7 5 5 5 4 6 5 5 4 10 11 7 4 4 4 4 2 2 2 5 8 8 10 8
13 11 12 13 11 10 9 9 10 7 4 4 3 1 1 4 6 6 9 8 13 12 4 3 8 7 3 3 1 1 4 6 3 6 5 5 2 2 1 3 4 3 10 6 9 11 11
14 13 12 13 12 10 11 11 11 9 9 3 4 2 2 4 4 3 1 8 15 13 7 5 5 3 4 4 3 4 3 4 2 2 3 2 3 2 2 1 4 4 3 5 7 5 4
14 14 15 14 16 11 11 11 12 10 11 11 5 3 2 3 1 3 8 11 11 13 6 8 6 5 4 11 6 3 4 5 5 5 3 3 3 2 1 3 2 4 7 3 5 5 8
15 16 15 17 10 9 11 12 11 11 8 17 10 5 2 2 2 6 7 5 9 8 4 4 5 3 10 5 4 2 2 1 1 2 4 3 3 2 1 1 5 11 2 3 3 11 6
16 17 17 14 13 13 13 12 12 11 9 18 15 15 2 2 3 4 3 3 3 4 6 4 4 8 5 3 3 3 2 2 4 3 7 6 4 2 0 1 2 5 2 5 3 8 11
18 19 19 16 14 14 14 13 13 12 10 13 8 18 4 1 4 2 2 2 1 2 3 4 7 8 5 4 3 2 3 2 2 2 2 3 2 3 3 4 5 5 10 7 3 4 9
18 19 17 11 13 15 16 15 15 13 12 9 5 20 12 3 4 5 4 5 1 1 1 4 3 4 4 5 2 2 1 3 3 2 2 3 3 3 2 3 7 9 3 3 3 7 10
20 20 17 14 15 17 17 17 16 15 14 11 6 20 24 3 3 3 14 21 12 5 3 3 2 2 2 2 3 3 2 3 3 2 4 3 1 1 4 3 6 7 10 10 10 10 11

GFSGBSN_925_spd_093.txt.gz
Wind_Speed
5 5 6 7 7 8 9 10 11 13 14 16 18 19 19 21 21 23 27 30 33 33 30 28 23 17 10 4 13 23 21 17 5 9 10 7 10 10 12 6 7 9 8 8 15 14 11
3 3 3 4 6 8 10 10 11 12 14 16 17 17 19 20 22 25 28 32 38 38 35 29 23 14 6 16 14 12 11 8 1 8 8 11 9 13 7 10 12 4 15 17 13 14 8
3 4 6 3 5 7 8 9 11 13 15 16 17 18 20 22 24 26 29 35 39 35 33 25 17 11 14 24 18 11 12 16 15 14 4 12 10 7 6 3 7 8 10 13 11 8 6
2 3 4 4 4 6 8 10 12 14 14 16 18 19 21 23 26 30 35 37 36 30 22 15 6 10 11 14 19 25 27 25 24 21 19 16 11 9 4 3 2 4 3 4 4 16 10
1 2 3 3 4 6 8 11 12 12 15 18 19 20 22 25 27 30 36 34 29 19 8 5 5 5 12 8 6 12 14 12 3 15 15 5 7 5 4 7 5 2 6 4 5 11 6
2 1 2 4 6 7 9 11 12 14 15 17 18 20 22 24 28 32 35 34 14 5 9 5 2 4 9 3 8 23 8 9 6 8 5 9 6 7 5 8 12 8 5 6 9 3 7
2 1 2 4 5 7 10 11 11 13 15 17 20 21 23 24 27 32 28 11 6 3 9 8 19 16 24 34 29 17 7 9 4 5 9 9 10 17 17 15 11 8 9 12 3 4 4
1 2 1 4 7 9 10 10 11 13 16 18 20 22 23 24 27 20 26 4 7 10 14 18 28 27 39 18 12 20 18 7 8 7 8 5 20 12 13 11 13 11 14 14 7 8 5
2 2 4 5 7 8 9 10 12 13 16 18 20 21 23 25 23 11 19 1 20 22 6 19 16 16 15 22 18 23 11 7 8 13 14 14 3 14 12 9 12 11 15 9 11 3 4
2 1 2 5 7 7 9 10 12 14 16 18 20 21 22 27 6 20 12 20 27 18 5 9 4 5 6 7 9 24 22 8 6 16 13 9 9 7 13 17 14 15 10 9 6 4 7
3 1 3 4 6 7 9 11 12 14 16 18 19 20 20 18 13 8 15 26 31 3 6 2 1 4 3 6 14 4 17 10 11 8 8 8 7 10 5 8 13 9 9 9 5 4 2
3 2 4 4 5 7 9 10 13 15 16 17 19 19 20 13 16 13 20 28 5 2 8 7 4 15 14 11 6 4 12 4 3 4 2 4 1 6 7 3 10 10 8 6 4 2 4
4 3 2 3 6 8 9 10 13 14 16 17 19 20 21 14 6 19 18 8 1 5 9 8 13 16 18 24 5 8 13 8 10 8 6 3 3 3 6 8 7 3 6 2 3 4 4
5 3 4 5 6 6 8 10 12 14 16 17 20 21 19 7 13 11 6 1 5 7 8 18 14 26 10 9 3 10 16 9 3 6 7 9 5 8 4 4 9 5 5 4 4 3 1
6 4 5 5 6 6 7 9 11 14 15 18 21 15 8 10 13 2 1 1 4 4 8 15 22 5 4 13 9 7 8 9 4 5 5 6 2 2 3 4 6 4 4 2 3 1 1
7 6 5 5 6 8 7 8 11 12 14 16 15 8 6 12 5 2 2 4 6 11 18 16 7 10 6 10 9 1 3 2 1 6 1 6 6 3 6 5 11 3 8 4 2 2 2
8 6 6 4 6 6 6 8 10 11 12 12 6 3 2 7 6 1 2 5 7 12 14 5 6 10 6 8 12 3 5 3 6 1 2 2 3 4 4 1 7 4 3 4 4 2 2
10 6 7 5 6 7 5 7 8 10 11 8 3 2 7 9 3 1 3 5 10 15 15 10 5 5 7 8 5 4 6 9 15 2 3 2 4 5 3 2 7 3 4 3 3 4 1
11 8 9 6 6 5 5 6 7 8 8 3 2 2 3 5 3 4 6 9 9 11 9 4 6 6 3 5 5 6 8 12 11 5 2 0 2 6 8 5 7 6 3 6 7 3 4
12 8 9 7 7 6 6 5 5 5 5 4 2 3 3 3 1 5 9 8 14 12 11 6 7 5 3 5 7 7 9 9 11 9 10 4 5 5 5 6 3 4 2 3 3 2 1
9 9 9 7 8 7 5 5 5 3 2 2 2 1 1 4 3 5 5 5 13 8 5 8 2 10 5 5 7 8 10 7 11 18 4 3 6 6 8 6 3 2 4 3 5 6 5
12 9 9 7 9 9 8 5 5 2 2 2 1 0 1 3 7 6 3 4 13 18 5 5 10 12 6 6 5 4 7 3 1 7 5 5 2 2 3 5 4 1 6 4 7 8 11
11 11 12 11 10 9 8 7 8 4 9 3 2 1 1 3 3 3 2 6 11 14 7 6 13 5 6 7 10 12 7 6 4 6 5 2 3 1 2 2 4 4 2 3 2 3 3
11 11 11 11 11 13 12 7 7 6 10 7 5 3 2 3 2 4 9 12 13 13 8 9 8 7 5 15 13 5 4 5 4 5 2 1 2 2 2 1 1 1 6 2 2 4 8
11 11 11 13 13 11 7 8 8 5 6 12 8 5 2 2 3 8 6 8 12 9 4 4 5 5 12 6 4 3 2 1 4 8 3 0 2 3 2 1 5 2 6 6 6 9 10
11 13 13 14 15 9 10 10 9 7 5 16 12 12 3 1 3 2 3 3 3 5 7 3 4 9 6 2 2 3 3 3 3 2 6 4 4 3 2 2 1 4 9 10 4 8 14
14 14 14 16 16 14 13 10 11 9 6 11 7 17 4 2 3 4 2 2 2 2 3 4 7 7 6 5 3 3 2 3 2 3 2 3 4 4 2 1 5 6 15 10 2 5 10
14 15 16 17 17 15 13 10 13 11 8 8 5 17 9 3 4 6 4 4 2 1 2 4 3 3 4 5 4 3 3 3 2 2 3 2 1 1 2 3 3 13 5 4 2 10 8
15 17 16 19 16 12 12 12 14 12 10 9 5 11 20 2 3 4 10 19 14 7 2 2 1 2 3 2 3 2 1 3 4 2 4 2 4 2 3 3 7 8 8 11 12 9 11

GFSGBSN_925_spd_099.txt.gz
Wind_Speed
14 12 10 7 5 4 3 4 4 6 8 10 12 14 16 16 18 20 23 25 27 28 28 27 24 18 12 11 21 22 22 22 22 20 21 18 18 21 30 27 27 32 28 26 25 24 25
15 13 10 8 6 4 3 3 5 7 9 11 13 14 16 17 19 22 26 30 30 30 28 28 22 12 13 22 14 11 13 12 14 15 21 24 19 18 23 27 29 25 30 27 26 24 22
15 13 11 8 6 5 3 1 4 6 8 10 11 14 16 19 23 27 30 32 32 29 30 25 18 11 16 27 19 20 21 23 22 23 20 23 26 23 17 25 26 28 26 22 23 28 29
16 13 13 10 7 5 2 2 4 5 7 9 11 15 18 22 25 28 32 31 30 31 23 18 12 14 12 16 18 21 23 27 28 28 26 23 17 22 25 17 22 20 26 25 26 22 22
15 13 12 11 9 5 1 1 2 4 6 8 12 16 20 23 26 30 29 29 27 17 13 10 10 12 16 9 12 13 10 15 20 22 29 28 17 19 18 22 19 24 22 30 26 26 25
15 14 14 12 9 6 3 1 2 4 6 10 13 16 20 23 26 27 28 31 26 13 8 14 14 8 18 11 9 8 13 14 12 15 18 24 15 19 20 19 22 26 25 24 24 25 25
18 17 15 11 10 6 4 2 1 3 7 10 13 16 20 22 26 20 26 27 8 5 14 14 23 24 31 35 27 26 28 29 21 22 17 23 21 25 33 31 24 21 20 17 15 19 12
19 17 15 13 9 7 5 2 1 4 7 11 13 17 19 22 23 14 20 12 10 10 17 21 31 31 37 32 26 25 23 23 25 25 22 21 27 32 27 28 27 15 6 20 24 12 14
17 18 16 12 10 7 5 4 2 4 7 10 13 15 18 23 10 12 14 12 14 16 10 22 17 7 1 10 17 20 10 20 25 24 28 25 28 27 26 25 23 18 20 21 16 17 20
18 17 14 12 10 8 5 3 2 4 6 10 13 15 17 22 10 16 9 16 15 13 6 10 10 5 4 11 11 21 23 18 23 27 25 25 28 23 27 22 21 23 23 22 20 14 16
17 16 15 12 10 8 5 3 2 4 7 10 12 14 16 9 11 11 16 17 13 1 7 15 6 5 16 19 23 18 10 13 24 25 20 20 23 20 21 19 19 17 15 20 20 17 17
18 16 15 11 10 7 4 2 2 4 7 9 12 13 15 8 7 13 17 16 8 5 6 19 20 27 24 28 26 19 23 14 19 27 24 22 16 17 18 16 16 16 13 11 13 14 14
18 17 15 12 10 7 5 3 1 4 7 9 12 14 7 6 9 18 16 13 7 7 23 19 29 26 30 15 26 14 12 15 18 23 17 11 14 19 11 15 10 11 12 6 8 9 12
17 17 16 12 8 7 5 2 1 4 7 10 12 6 3 5 12 13 13 12 15 20 21 24 22 31 15 17 16 20 10 15 22 24 14 9 12 13 13 18 16 20 21 8 6 10 12
19 15 14 11 9 9 5 2 2 4 7 10 7 0 1 7 11 10 8 8 11 17 20 22 29 19 14 19 15 13 15 15 21 24 8 13 4 13 14 13 17 17 15 9 5 6 3
18 18 14 12 9 7 4 2 2 3 5 10 6 2 2 7 9 8 5 9 15 14 19 19 17 10 19 26 18 18 10 15 20 16 7 4 4 15 13 13 16 16 17 8 4 2 4
16 17 14 11 10 6 5 2 1 3 6 6 3 4 5 8 4 4 5 10 15 14 15 12 14 19 22 17 12 12 10 10 1 16 10 4 9 11 10 11 13 10 13 7 7 5 3
18 16 12 11 10 8 6 3 1 3 5 2 2 2 4 6 3 3 6 13 11 13 12 9 10 11 11 15 9 8 6 15 12 12 11 8 3 13 18 17 7 18 14 13 4 8 1
18 15 13 10 9 9 6 3 2 2 4 4 3 3 3 5 3 5 9 9 13 14 13 9 5 5 13 7 7 11 7 14 21 12 1 1 6 11 8 7 13 11 9 9 3 1 5
17 16 10 12 12 7 7 4 3 1 2 3 1 0 2 1 4 7 11 8 14 10 6 6 6 9 10 8 18 8 11 14 17 16 15 13 7 10 8 11 12 8 10 7 7 4 4
17 18 14 12 12 8 7 7 3 2 2 4 3 2 3 2 1 6 6 5 11 10 7 11 6 18 17 8 13 14 19 17 13 21 11 10 4 9 1 15 11 9 9 7 5 2 3
19 15 16 12 13 10 10 6 4 4 4 4 3 3 3 5 5 6 1 6 9 13 8 12 15 20 16 15 14 22 18 12 6 11 7 11 5 11 13 13 13 10 6 3 4 2 2
14 19 16 13 13 11 8 7 7 6 7 2 1 2 2 5 3 3 2 8 12 12 6 10 16 17 14 20 22 20 14 10 9 6 9 5 3 2 9 6 13 10 8 5 9 12 11
17 17 14 13 12 9 11 9 6 8 11 1 2 2 2 3 3 5 7 9 11 10 11 13 12 12 15 22 19 6 5 6 6 6 3 8 5 3 4 5 6 10 10 7 14 15 16
16 15 15 13 13 13 11 10 9 8 10 6 3 2 2 3 5 2 7 8 10 6 8 11 12 14 14 15 8 2 4 4 7 9 5 6 5 3 1 7 13 7 10 9 7 12 16
15 17 16 14 14 12 12 10 12 9 8 8 4 3 3 3 2 4 7 5 8 9 7 5 12 12 12 7 6 4 5 7 5 3 6 6 5 4 0 4 4 7 16 14 11 4 16
19 16 16 15 12 12 14 13 8 10 8 8 3 8 5 3 7 3 7 8 7 8 7 7 13 7 10 7 4 4 3 6 4 5 6 5 4 6 2 2 6 11 21 18 5 5 12
24 18 17 16 14 12 13 15 10 10 10 6 2 12 5 3 9 8 8 7 8 6 7 11 7 6 6 6 5 5 4 6 4 5 6 7 6 5 3 2 4 19 7 7 6 8 10
23 20 18 17 14 14 11 13 11 10 11 7 3 5 12 5 6 12 16 19 17 14 8 4 2 5 4 4 6 3 3 2 6 1 9 2 5 3 6 3 4 8 9 7 6 7 8

GFSGBSN_925_spd_102.txt.gz
Wind_Speed
18 17 15 14 11 9 7 6 3 1 2 5 8 10 13 16 18 20 23 25 26 27 25 24 20 17 12 9 17 24 26 18 18 20 24 20 22 20 23 23 26 30 32 29 29 27 26
20 17 16 14 12 9 7 5 2 1 3 5 7 10 13 17 21 23 25 27 27 25 25 25 20 14 12 18 17 13 11 16 19 20 19 20 20 23 27 24 25 28 28 29 28 27 27
18 16 15 14 12 10 8 5 3 2 4 5 8 11 15 18 20 23 27 27 26 26 26 24 17 10 14 27 19 24 26 28 23 24 22 26 26 22 24 26 26 26 29 29 28 31 28
18 16 16 14 12 11 8 5 3 3 3 6 9 12 15 18 20 25 26 28 28 27 21 19 13 8 10 13 17 23 25 27 27 30 34 32 30 26 26 27 30 27 27 24 31 27 26
20 17 18 16 14 11 8 5 4 3 4 7 10 13 15 16 21 26 24 27 30 20 16 13 7 10 13 11 14 21 17 20 20 21 27 29 25 23 24 23 22 25 21 31 31 26 24
24 19 16 16 14 12 8 6 5 4 4 7 10 12 14 18 22 20 26 28 21 17 12 15 15 12 20 16 20 43 34 32 19 16 18 19 16 19 19 19 20 24 26 24 25 22 24
25 20 18 17 14 11 9 7 5 4 5 7 10 12 14 17 17 19 26 24 14 3 17 14 22 24 33 44 43 31 27 25 24 25 23 20 19 24 32 26 27 26 27 26 20 12 15
26 23 21 18 15 11 9 7 5 4 5 6 9 12 14 17 10 15 17 13 13 11 17 22 25 25 40 42 28 25 28 21 19 23 25 22 22 26 28 28 29 30 26 24 16 19 17
29 26 23 18 14 11 9 7 5 5 4 5 8 11 14 16 9 13 10 14 14 15 7 20 7 7 15 16 14 25 18 14 21 24 26 27 24 27 25 29 29 27 28 19 17 9 11
29 26 22 19 14 12 10 8 6 5 3 5 7 10 13 14 3 11 8 17 14 11 5 6 6 2 3 16 25 16 24 23 22 25 24 27 27 27 26 28 29 24 26 15 17 5 3
29 28 23 18 15 13 10 8 6 4 3 5 7 9 11 8 8 8 14 16 12 4 7 11 23 4 20 25 28 29 34 28 16 19 20 27 25 20 22 24 27 21 17 19 13 9 7
30 26 22 18 16 13 11 8 6 5 4 5 7 10 9 3 7 10 17 13 8 5 5 21 24 26 27 28 25 29 23 17 23 18 23 27 20 18 28 24 24 10 12 3 9 7 6
28 25 22 18 16 14 11 8 7 5 5 5 7 5 4 4 7 16 15 11 5 6 24 19 31 28 29 26 26 24 27 11 8 17 17 15 21 22 17 19 12 10 13 5 5 7 8
25 23 22 18 16 13 11 9 8 5 5 4 3 3 2 3 10 14 14 10 4 15 16 21 24 28 19 19 20 20 14 11 21 16 11 15 6 19 14 15 12 17 15 6 7 9 11
22 24 21 18 15 12 11 9 6 5 4 4 4 3 5 3 9 11 7 5 8 15 17 19 23 17 20 29 15 12 17 20 8 16 5 3 5 12 14 8 11 17 13 8 3 7 2
21 21 20 17 14 12 10 7 5 5 3 6 6 4 4 4 8 12 4 5 11 12 14 14 12 8 19 20 15 21 13 3 4 4 9 6 2 5 8 7 9 10 13 3 3 2 0
22 19 19 16 14 11 9 7 6 4 2 5 6 3 5 3 6 3 2 10 11 11 11 8 12 11 13 12 17 10 13 17 28 3 10 7 10 10 9 2 13 12 5 4 5 8 0
21 21 19 15 15 11 10 7 5 3 3 5 3 2 3 3 3 3 3 9 10 12 13 11 6 9 6 9 8 6 13 8 27 20 10 10 3 2 12 19 15 7 7 13 4 1 5
19 19 18 14 14 12 10 7 4 3 2 7 2 2 4 3 1 3 7 7 9 13 10 10 7 7 6 4 7 8 15 19 21 16 12 10 3 1 4 3 8 6 11 12 8 5 2
21 19 16 15 12 13 10 6 5 4 2 3 1 1 3 1 4 5 7 6 10 9 7 11 10 11 10 4 12 9 15 8 18 18 19 8 4 6 4 3 10 1 4 2 2 3 5
20 20 16 16 12 11 10 7 4 3 0 3 2 3 3 2 2 4 6 5 9 9 8 8 8 17 15 6 13 11 19 13 14 20 12 6 4 6 8 13 10 7 12 5 10 8 3
20 19 17 15 14 11 10 7 4 4 1 5 3 3 3 5 4 6 1 3 8 10 11 10 13 19 17 14 13 20 22 13 6 11 10 10 4 11 5 19 16 18 8 10 6 14 14
19 18 21 15 15 13 11 6 5 6 2 1 1 2 3 4 3 3 3 6 11 12 6 11 15 16 13 19 19 20 16 10 11 1 6 9 5 6 9 14 9 13 15 16 20 21 19
19 19 19 16 14 12 9 7 5 7 7 3 3 1 1 4 4 3 6 8 10 10 10 12 12 12 15 20 21 15 8 4 6 4 2 6 9 2 3 4 5 7 19 16 21 20 20
17 19 19 17 15 11 10 9 7 6 6 2 2 1 2 4 8 3 5 7 9 9 7 12 9 14 15 16 9 7 1 8 7 4 5 5 5 4 3 4 12 9 16 14 7 14 20
19 19 17 15 13 12 10 11 9 5 5 3 3 1 2 3 2 7 7 9 7 9 8 11 10 15 11 9 5 4 2 4 4 2 9 7 7 3 2 4 0 7 20 19 14 6 16
18 17 17 14 15 12 11 10 9 7 6 5 1 1 1 2 4 7 6 7 8 10 8 10 15 9 11 5 4 5 3 9 6 8 9 8 5 7 5 4 5 15 21 16 4 5 11
19 17 15 14 14 13 14 12 8 5 7 4 1 2 1 3 8 9 6 7 7 8 7 12 7 5 5 7 5 5 4 5 5 13 10 8 6 5 6 6 4 22 7 7 3 5 8
22 19 16 14 13 14 12 14 11 7 9 7 1 2 1 2 6 14 15 17 16 14 8 8 6 6 5 4 5 4 3 4 7 3 10 4 5 3 5 3 3 9 9 7 6 6 5

GFSGBSN_925_spd_105.txt.gz
Wind_Speed
24 20 17 14 12 10 8 7 7 5 4 5 6 8 11 13 15 17 19 20 20 21 21 22 21 16 9 3 12 23 24 25 19 16 13 10 12 8 19 8 14 22 25 23 26 21 26
28 23 20 16 13 10 8 8 7 6 6 5 7 9 13 15 17 19 21 22 20 21 22 20 17 11 4 8 14 12 13 13 19 20 21 18 8 11 15 19 18 11 20 24 23 22 26
30 29 24 21 16 12 10 9 8 8 7 6 7 11 13 16 18 21 23 23 24 21 21 20 13 6 8 23 15 17 24 25 24 27 14 22 17 9 6 11 15 19 23 22 22 28 27
34 31 27 24 20 16 14 12 11 9 7 6 8 12 14 16 19 21 22 23 23 22 18 14 10 6 8 14 16 18 18 22 25 27 30 27 27 16 12 8 21 20 20 19 24 22 22
36 33 30 27 23 17 15 13 11 10 7 6 8 12 14 16 19 19 22 26 25 17 15 11 4 7 11 17 6 19 27 23 26 25 28 24 19 16 15 18 14 12 19 21 23 20 15
39 33 30 27 24 21 16 13 11 10 8 7 8 11 12 15 16 17 23 26 19 6 10 6 9 5 6 13 33 33 32 22 14 16 17 14 12 13 15 11 16 18 14 20 22 16 18
39 33 32 27 25 21 17 13 12 10 8 7 9 9 11 14 13 16 24 12 7 4 11 5 13 21 21 16 33 15 28 25 19 11 14 14 13 15 19 17 20 18 21 19 15 24 5
41 37 31 25 21 18 16 14 13 10 8 7 8 9 11 14 9 12 12 5 7 4 10 17 20 20 31 21 11 12 24 11 16 13 17 14 19 24 19 18 19 23 23 23 18 16 3
43 36 30 25 21 18 16 14 12 10 7 6 8 11 11 13 8 8 5 14 12 10 4 10 8 6 3 2 7 17 12 7 10 16 19 21 23 20 21 22 17 24 21 18 20 3 5
41 35 31 26 21 19 17 14 12 10 7 6 7 9 9 15 5 11 3 15 11 6 3 9 5 4 6 7 18 18 26 7 9 17 16 17 22 23 22 15 20 19 19 22 23 5 3
39 36 31 25 23 20 17 15 11 8 7 6 7 8 7 4 8 5 11 16 9 0 3 16 5 7 17 13 20 10 20 14 16 18 10 14 16 13 19 21 17 21 18 21 21 5 6
41 34 30 28 25 20 18 14 11 9 7 6 7 8 7 2 7 6 16 12 7 3 3 10 12 20 20 16 14 10 11 9 13 12 9 16 15 10 5 7 15 22 1 6 4 2 3
37 32 32 29 24 21 17 13 11 8 7 6 7 6 6 7 4 13 13 4 4 3 12 10 22 23 17 21 13 14 14 11 2 1 4 11 14 14 9 8 15 12 9 1 3 4 4
35 34 30 25 24 21 17 14 10 8 7 6 7 6 6 9 11 9 7 3 3 11 8 15 15 15 8 18 10 18 19 15 3 4 5 4 6 3 6 16 6 5 7 5 5 3 3
34 31 28 25 23 20 16 13 10 8 6 6 6 8 7 7 8 6 2 4 2 6 11 13 15 7 7 13 9 11 17 14 10 4 3 5 5 20 18 15 19 6 6 1 3 2 2
33 29 28 25 22 17 15 13 9 7 5 4 5 8 5 3 5 3 3 2 3 5 8 6 5 4 10 14 13 14 16 11 16 18 20 3 6 10 11 4 3 7 2 4 3 1 4
28 29 27 23 19 18 13 11 7 6 4 4 3 1 3 1 3 2 2 1 3 7 8 7 5 6 6 10 9 6 8 14 17 18 19 2 3 3 1 5 2 4 3 5 2 2 4
29 27 25 21 18 16 12 10 5 5 4 6 4 2 8 3 3 2 2 3 6 8 5 5 5 4 2 7 6 4 3 4 20 20 6 5 4 3 2 5 5 7 5 1 2 3 1
26 24 22 20 17 15 13 9 5 4 2 5 2 3 5 3 2 3 4 3 4 8 6 4 3 5 1 3 5 5 4 9 14 17 11 5 2 3 2 2 4 2 6 9 2 3 3
23 25 23 18 18 14 11 8 5 4 2 4 2 2 0 1 2 2 3 3 5 8 5 5 4 6 2 4 5 7 6 7 17 12 15 7 4 4 5 5 2 4 4 3 7 1 2
23 24 20 18 13 14 11 7 5 5 3 3 2 3 3 2 2 1 3 1 4 4 5 6 4 10 9 2 7 4 7 18 12 12 9 4 7 9 7 11 15 9 13 8 7 9 2
25 23 19 17 13 13 12 7 5 5 4 3 3 1 1 2 1 5 3 3 3 5 5 6 7 12 9 5 4 19 18 12 5 10 7 8 4 5 15 14 12 13 18 23 20 13 15
22 21 17 17 15 13 11 7 6 5 3 3 3 2 3 3 1 3 1 3 6 7 4 8 9 7 7 10 15 20 18 15 13 5 2 2 5 6 3 6 10 13 18 21 21 21 14
20 19 19 15 15 13 11 6 5 5 1 4 5 4 3 3 2 2 4 3 6 7 7 7 6 5 7 15 16 11 2 8 12 9 6 3 2 3 1 5 5 8 14 19 23 22 19
18 16 20 16 16 14 9 7 6 5 5 3 6 4 2 1 3 7 4 5 7 8 7 6 11 7 8 8 4 4 3 4 2 10 3 4 2 3 2 3 7 12 13 10 5 13 18
18 18 19 17 15 13 10 10 8 4 6 3 7 4 2 3 3 9 4 7 3 5 7 6 14 13 7 2 3 3 3 4 1 7 10 7 6 3 1 3 5 6 20 15 5 8 14
17 22 22 18 15 14 12 11 8 4 5 4 3 4 3 2 3 5 4 2 4 4 2 4 9 7 6 3 3 3 3 7 5 7 7 5 4 6 6 4 2 14 20 13 3 3 6
22 21 20 16 16 15 12 11 9 8 7 4 6 4 2 2 5 5 6 4 5 4 2 5 5 5 5 6 4 3 3 4 2 4 4 4 4 4 4 4 3 20 7 6 2 5 8
19 19 19 15 16 13 14 14 8 6 9 6 3 3 3 3 4 9 18 19 13 5 1 4 0 4 3 3 3 3 3 4 5 3 7 4 3 2 5 4 4 9 10 8 6 4 3

GFSGBSN_925_spd_108.txt.gz
Wind_Speed
30 28 29 25 22 21 17 14 12 10 8 8 9 10 12 13 14 17 18 22 23 20 22 20 16 12 5 3 8 10 13 15 18 9 9 4 4 4 8 5 6 15 21 18 18 13 22
34 33 33 29 25 24 20 16 14 12 10 9 9 10 12 13 15 17 20 21 22 22 20 17 10 6 2 3 5 18 24 19 16 11 9 5 6 8 10 12 13 7 14 20 19 25 23
39 37 35 31 28 25 22 20 17 13 10 10 10 11 12 14 15 18 21 21 22 23 22 18 7 1 2 12 15 19 26 20 18 16 6 20 20 11 6 8 7 8 14 21 25 21 12
42 42 39 35 30 28 23 21 17 13 10 10 11 12 13 13 16 18 21 23 27 23 16 12 2 5 6 13 19 18 22 26 29 23 18 16 19 13 7 8 15 12 10 14 19 15 15
46 47 43 38 34 30 25 20 16 12 9 10 11 12 12 13 16 17 21 25 22 13 7 5 5 5 7 13 2 22 14 8 16 19 25 19 10 11 10 9 14 13 15 19 26 14 12
49 50 47 41 36 31 26 21 17 13 10 10 10 11 11 12 14 16 21 24 12 2 10 4 3 4 5 4 11 21 20 18 9 7 5 4 3 5 7 4 14 19 11 16 16 22 14
54 51 45 41 36 29 25 21 17 14 11 9 9 9 10 12 11 13 22 8 7 6 6 4 6 4 11 11 19 10 20 7 5 3 1 3 6 11 15 13 18 17 20 18 19 23 18
57 52 49 43 36 31 26 21 16 14 11 9 8 8 9 11 7 10 11 5 3 4 8 4 10 8 20 13 7 13 25 4 4 8 1 4 13 16 18 16 20 20 22 22 20 24 16
58 54 49 42 38 33 27 23 19 15 12 9 7 7 8 10 5 3 9 7 5 4 0 7 5 4 5 5 11 21 7 13 10 13 9 12 13 14 17 18 19 22 21 19 17 22 17
59 54 49 43 38 30 26 22 21 17 12 8 6 5 5 10 1 6 4 12 4 2 3 6 2 2 4 9 6 28 14 4 4 10 10 14 12 17 15 19 17 19 12 14 21 19 11
61 58 52 47 43 33 27 23 19 15 12 8 5 3 4 3 4 1 5 11 4 2 1 11 0 3 15 5 16 3 13 3 13 18 8 15 15 14 14 16 16 21 15 21 18 15 6
62 56 51 38 36 34 29 24 19 16 12 9 6 2 5 3 3 4 12 8 2 3 2 6 7 13 15 12 12 6 16 6 8 7 8 19 12 4 10 16 10 5 3 13 12 6 9
60 56 49 42 37 30 25 23 20 15 12 9 6 4 4 5 3 6 9 3 2 2 5 5 9 14 18 12 12 8 13 7 7 5 4 4 7 7 8 5 3 5 2 3 2 2 4
63 54 49 41 36 31 24 22 17 14 11 8 6 5 6 12 3 7 3 3 2 2 2 4 5 14 6 10 12 11 13 9 10 5 5 4 6 1 3 4 6 2 9 4 4 3 3
58 54 47 41 33 31 25 20 16 13 10 8 4 3 5 3 4 2 4 4 3 1 1 5 8 4 4 9 7 8 8 7 8 12 7 5 5 9 15 15 5 4 5 6 3 4 3
55 49 43 38 33 30 25 20 16 13 9 5 5 3 4 5 4 3 3 4 2 1 3 3 1 0 4 7 8 8 9 6 15 12 12 4 7 4 6 1 7 10 1 2 2 1 2
53 46 40 36 33 27 24 21 17 14 11 7 5 2 4 6 3 4 3 4 2 5 4 2 2 4 6 6 7 5 6 8 13 14 17 4 4 7 5 6 6 4 2 3 1 3 1
44 39 37 35 29 26 23 20 16 14 12 9 5 2 8 5 3 1 2 2 2 4 3 2 1 4 5 4 4 5 4 4 14 14 12 6 3 4 5 6 3 3 3 1 3 0 3
40 37 34 30 28 25 22 18 15 14 12 9 4 2 3 2 3 1 3 1 2 2 2 1 3 6 1 3 3 6 5 8 12 15 9 5 3 4 2 5 5 3 2 2 4 2 3
38 36 32 29 26 24 21 17 14 13 11 6 3 3 2 3 2 5 3 2 2 3 3 3 5 4 2 3 6 6 6 7 20 14 14 5 1 2 5 9 3 7 2 3 4 2 8
33 32 29 26 24 21 20 16 13 12 9 6 2 3 4 2 2 3 4 3 1 1 3 2 4 5 4 4 5 3 5 12 10 5 6 3 2 5 3 8 7 17 8 9 5 7 8
34 31 27 25 21 20 18 15 13 12 8 3 4 3 3 3 5 6 4 5 4 2 2 5 3 9 6 3 5 15 10 4 6 8 5 2 5 6 15 16 21 21 21 22 16 14 13
29 27 25 23 23 20 16 14 12 10 5 3 1 3 4 2 2 4 4 3 1 2 4 3 6 5 5 5 10 15 12 15 9 6 5 6 3 5 2 6 9 14 15 19 20 21 8
28 24 23 22 21 19 16 14 12 10 8 6 4 4 4 1 2 4 6 3 3 4 3 3 5 3 6 12 13 7 6 8 6 8 10 8 5 2 2 5 6 3 10 16 22 18 16
27 25 23 23 21 19 15 13 13 11 9 13 7 3 3 2 1 6 8 3 4 6 5 2 4 4 9 6 4 5 4 3 5 4 7 7 2 2 2 4 7 5 9 6 6 13 15
27 27 22 22 22 17 14 13 13 13 9 11 12 6 4 4 2 3 3 3 2 3 6 3 5 7 7 2 2 3 2 4 2 6 7 7 7 1 1 4 4 4 18 11 6 7 10
23 26 23 23 20 15 14 13 12 12 10 8 8 7 4 3 2 3 3 2 2 2 1 3 7 6 5 3 3 3 3 6 4 6 6 4 3 6 5 4 3 14 18 7 2 2 8
24 26 24 21 19 16 14 13 12 12 11 8 7 7 3 2 4 3 3 2 2 2 2 4 4 4 4 5 3 3 2 3 2 4 3 4 4 4 3 4 3 18 5 5 4 4 5
28 26 22 20 18 17 17 14 13 14 12 8 5 7 4 5 4 3 10 14 8 6 4 2 3 2 1 3 2 2 2 3 4 2 6 4 3 3 5 3 3 5 8 8 5 5 5

GFSGBSN_925_spd_111.txt.gz
Wind_Speed
35 31 31 28 28 27 23 21 18 16 14 13 12 11 12 13 14 15 17 19 20 20 20 17 14 15 8 5 7 10 18 15 12 7 4 4 3 2 5 4 5 16 15 17 14 13 11
40 37 35 33 34 30 25 22 20 18 15 14 13 12 12 13 15 16 19 20 20 21 21 17 10 5 3 3 2 11 14 8 10 10 6 1 4 6 8 7 8 8 18 20 18 18 12
45 43 39 36 37 32 28 26 23 20 16 15 13 12 11 13 15 17 19 20 22 24 21 11 5 2 2 10 10 8 17 13 11 8 3 7 8 4 4 7 9 8 16 21 22 10 8
50 48 43 42 42 38 33 29 26 21 19 16 13 12 12 12 13 17 18 20 23 19 9 5 5 5 6 5 14 14 16 9 13 16 9 8 13 6 4 7 4 16 11 19 18 9 11
52 51 48 47 47 41 36 32 28 21 19 16 13 12 11 11 12 16 18 20 16 6 3 7 9 3 7 9 7 12 8 7 14 15 12 12 10 7 3 4 6 7 18 21 29 19 17
53 55 53 50 48 45 39 35 31 25 21 17 13 11 10 8 11 13 18 17 4 6 9 7 4 0 6 2 8 13 19 13 6 4 5 2 2 1 2 3 13 13 11 12 17 18 18
56 54 56 52 50 46 39 35 30 25 22 17 13 11 7 5 8 9 17 4 6 3 5 2 2 4 6 9 18 8 21 7 4 2 3 3 1 7 10 6 11 11 14 21 20 18 23
62 59 58 55 52 47 41 32 31 27 20 17 14 9 4 3 4 6 10 5 4 2 6 3 5 7 17 6 5 8 6 2 2 8 3 5 16 13 12 12 12 16 21 26 24 17 12
60 63 60 56 54 48 41 33 29 25 21 17 13 8 6 2 1 7 14 5 1 5 1 6 5 5 6 8 5 7 6 4 7 12 9 12 15 11 9 13 16 20 18 19 21 20 13
63 63 59 57 55 50 42 34 30 24 21 17 12 8 4 2 7 5 4 8 2 3 4 3 1 2 4 4 3 20 2 1 3 5 5 10 12 16 17 19 15 20 14 17 12 8 12
60 65 63 61 57 50 46 37 31 27 20 16 14 8 5 5 9 7 3 4 1 1 1 2 1 1 7 2 7 4 10 2 5 10 2 10 11 11 13 19 13 18 13 16 19 15 8
63 66 65 61 56 49 46 41 32 25 20 17 13 10 8 8 7 7 2 1 3 2 3 2 2 5 8 3 8 5 4 1 6 5 5 16 3 5 11 17 13 11 5 12 14 5 7
66 68 71 64 56 52 45 37 35 28 21 17 14 10 11 10 7 4 1 5 1 3 3 3 3 6 4 7 6 7 7 9 5 7 7 11 3 5 7 6 5 3 2 3 3 1 5
69 70 69 64 59 55 47 39 34 29 23 19 15 11 9 9 9 3 4 2 4 3 1 2 4 4 2 5 6 9 7 5 2 6 8 5 9 4 4 5 5 5 6 4 3 1 3
73 72 67 65 60 54 48 39 35 26 21 19 14 9 5 7 10 5 3 2 3 3 1 3 2 3 4 4 1 5 4 4 3 6 6 6 6 3 11 16 6 2 4 6 7 5 2
73 71 67 63 59 53 45 39 33 28 24 21 15 8 4 11 11 6 3 4 4 1 2 1 1 1 2 5 7 8 4 3 6 9 11 4 7 4 7 0 3 4 3 3 1 3 4
79 73 69 63 59 52 43 36 33 28 25 22 11 4 8 14 10 3 3 4 3 3 3 2 4 1 3 3 2 4 5 10 4 15 16 10 5 7 3 3 2 4 4 4 4 3 2
73 71 67 62 55 50 45 35 31 29 26 19 6 4 14 14 2 0 3 4 2 2 1 0 3 5 5 2 2 2 6 4 9 12 11 5 4 5 8 4 4 2 8 4 2 1 2
65 64 61 57 51 45 39 34 30 29 28 12 4 3 5 5 3 1 3 3 2 2 1 2 2 4 2 4 1 5 4 8 12 10 4 5 4 6 6 1 1 2 6 6 4 2 4
56 57 52 49 46 41 35 31 27 28 23 8 4 3 2 2 1 6 4 3 3 0 2 2 3 4 1 2 4 5 4 8 13 3 13 3 4 3 7 12 10 7 6 2 3 2 8
51 49 47 45 41 38 32 28 25 26 20 5 2 3 4 4 3 5 4 4 4 1 1 1 1 1 2 2 4 5 6 7 6 4 7 2 3 4 11 14 15 20 17 5 10 11 7
44 45 42 40 37 33 29 24 23 22 17 4 4 4 2 4 5 6 4 6 7 3 3 2 2 5 3 4 7 13 8 0 7 5 6 4 4 2 4 16 20 18 22 22 17 11 10
38 38 37 37 34 29 24 22 21 19 11 4 3 2 4 2 4 5 5 6 7 5 1 4 2 1 3 6 7 15 14 15 13 9 4 3 3 3 2 7 5 11 16 17 14 20 7
36 34 34 33 30 26 23 20 18 14 7 7 4 4 4 1 3 4 7 3 5 2 3 1 2 1 4 8 12 9 8 10 9 12 11 4 5 2 2 1 5 2 11 8 18 16 14
35 34 33 32 29 25 21 20 18 14 12 16 7 3 3 3 2 4 7 6 3 4 2 3 1 2 6 5 4 5 4 5 3 4 4 4 2 2 2 5 5 3 7 6 6 9 14
31 34 34 32 28 24 21 21 19 16 17 19 14 8 5 6 1 0 4 2 3 1 4 2 4 5 6 2 2 2 2 3 4 8 3 4 9 2 3 3 2 4 15 9 4 4 10
30 30 31 29 25 22 21 21 19 15 14 15 10 8 6 4 2 2 3 4 4 2 2 2 5 6 4 3 2 2 2 2 3 5 5 4 3 6 4 3 4 11 11 4 2 2 5
29 29 30 26 22 21 21 21 19 16 15 13 12 10 5 3 1 2 1 4 2 3 3 3 3 4 4 4 2 2 2 2 2 2 3 4 3 3 2 3 2 14 4 3 4 4 6
30 30 27 24 22 22 19 19 18 16 14 14 7 10 9 5 3 0 1 4 3 7 4 1 3 1 2 3 1 1 2 3 3 1 4 3 3 2 4 3 3 5 9 8 6 6 4

GFSGBSN_925_spd_114.txt.gz
Wind_Speed
33 33 32 32 30 27 25 24 22 20 20 18 16 13 13 12 12 13 15 15 16 17 19 22 19 17 8 5 4 8 13 9 11 10 10 4 2 1 3 4 7 10 6 9 5 8 9
39 38 36 36 33 30 29 26 26 23 23 19 18 14 14 14 12 14 16 16 16 18 22 21 13 8 3 4 0 6 14 9 8 8 4 2 2 3 4 5 6 4 13 15 3 7 5
42 41 41 40 38 33 33 31 29 25 24 20 18 15 14 14 14 15 15 16 17 21 19 11 5 1 3 7 4 9 9 7 7 4 2 6 7 4 2 6 9 9 12 18 14 4 6
45 46 44 43 42 38 37 35 32 29 26 21 18 15 14 13 13 15 15 15 20 14 9 4 4 2 5 4 9 5 8 8 9 12 9 13 9 2 4 7 5 5 6 13 3 4 12
49 44 45 47 46 44 41 39 35 32 27 21 18 15 12 11 12 13 13 15 10 5 6 7 6 2 6 8 2 7 9 7 14 12 12 10 3 5 3 3 7 3 12 14 24 7 9
46 38 47 48 50 48 45 43 38 33 29 21 16 14 11 9 10 11 11 9 2 5 7 2 2 1 3 4 7 13 15 12 6 4 6 2 3 3 3 3 11 10 7 10 15 22 17
33 46 53 49 50 50 47 44 41 35 30 22 17 13 10 7 6 7 9 4 5 2 1 3 1 3 5 9 12 3 10 5 1 1 2 2 1 9 11 10 15 13 11 14 20 22 20
35 34 48 50 49 52 49 47 43 38 30 22 17 13 9 6 3 1 6 5 2 1 6 2 2 4 10 3 4 5 1 3 1 5 1 2 9 14 10 10 10 11 15 19 20 19 14
36 38 40 48 53 54 52 47 43 37 30 24 18 12 9 4 4 7 12 5 4 5 2 6 3 3 4 7 3 4 2 3 3 2 3 5 9 6 12 13 12 15 12 19 22 22 18
41 42 42 44 55 55 53 51 46 39 33 28 19 15 8 4 5 9 5 4 6 3 4 2 0 2 1 3 3 6 1 2 3 3 5 7 5 5 6 9 9 12 13 16 19 13 9
46 46 44 44 49 58 55 49 44 39 36 31 25 17 13 13 8 8 8 8 6 1 3 1 3 1 5 3 5 2 5 2 4 5 3 7 4 5 6 7 5 11 11 13 18 16 13
47 48 48 47 49 53 54 53 49 44 38 32 25 21 15 12 8 11 8 11 3 5 5 2 2 4 5 2 3 5 5 3 4 4 4 12 5 5 5 4 6 9 8 14 11 2 5
49 49 49 50 51 58 56 57 51 44 37 30 24 20 18 13 7 15 14 5 4 3 1 1 1 2 2 4 5 4 4 5 4 8 8 12 3 3 3 5 2 3 3 4 3 1 5
58 57 57 53 53 62 62 57 53 46 38 31 22 19 16 11 19 17 10 4 3 2 2 2 2 2 2 6 2 5 5 5 5 4 9 6 8 3 5 6 3 6 5 3 5 3 6
63 62 60 57 59 67 64 58 54 48 43 34 22 16 7 18 17 16 4 3 5 5 4 3 2 3 3 2 1 6 4 2 2 4 5 6 6 5 10 10 5 1 3 5 5 8 7
75 63 64 65 69 72 66 61 55 48 43 38 23 13 7 24 18 7 4 4 5 4 6 3 3 3 1 2 3 3 3 2 1 2 5 5 10 5 5 2 5 5 1 2 2 5 4
63 61 61 69 75 74 67 62 57 52 44 37 17 4 12 24 17 3 4 5 4 4 6 4 4 3 3 2 2 1 3 5 3 3 3 9 6 8 7 4 4 2 3 3 3 2 2
50 59 68 78 77 72 69 64 57 55 45 35 10 3 18 23 3 1 4 5 4 4 3 2 4 4 5 4 3 2 5 5 1 5 9 2 5 6 12 18 5 3 4 4 3 2 2
53 64 75 78 75 71 68 63 59 57 51 18 5 3 8 2 4 2 2 4 2 3 4 5 5 4 3 6 1 5 4 5 4 4 2 4 4 6 7 1 2 3 4 8 7 4 4
58 73 75 73 70 66 63 59 58 58 51 16 4 4 1 1 2 6 6 4 4 2 3 3 3 4 2 1 4 3 3 3 7 3 5 7 3 5 5 5 7 7 9 2 1 3 4
68 67 65 66 66 65 63 59 53 55 33 9 2 4 5 5 3 5 5 6 5 4 3 4 2 4 4 1 3 3 4 5 4 2 3 3 3 3 7 9 11 21 16 14 15 9 6
55 59 58 56 56 57 53 50 50 44 24 5 4 4 3 3 9 7 5 5 6 4 5 3 4 1 4 5 6 4 3 2 5 4 6 1 3 3 3 3 5 17 21 18 13 12 11
45 45 47 49 51 47 41 39 38 34 18 4 3 4 5 2 4 5 5 6 7 7 5 5 5 3 4 6 4 8 9 8 8 3 3 3 3 3 1 6 9 4 10 14 11 18 5
43 44 43 41 40 40 36 33 34 30 8 8 4 4 4 3 5 5 7 4 7 6 6 3 3 3 2 5 7 7 6 7 7 9 9 3 4 2 2 1 4 2 7 6 17 14 11
37 38 40 39 36 34 31 29 28 23 12 21 6 4 3 4 4 5 9 6 6 4 3 3 1 1 4 3 3 4 3 2 3 4 6 11 3 3 1 2 3 2 7 6 6 8 12
33 35 35 35 33 32 31 27 23 21 20 20 17 11 5 7 2 6 6 4 4 3 2 0 2 3 4 2 2 1 1 2 2 3 5 5 2 3 1 1 2 4 11 7 6 4 10
33 34 34 33 31 32 31 29 28 24 19 19 11 10 8 4 1 3 4 5 4 4 3 2 3 5 3 2 2 2 2 2 1 3 3 3 2 4 4 3 3 8 10 5 2 1 7
32 33 32 30 31 30 28 24 23 21 19 15 13 11 6 3 2 2 2 5 3 3 3 3 3 4 3 3 1 1 1 2 1 2 2 3 3 3 2 3 1 12 3 3 5 5 6
32 31 28 27 28 27 25 24 22 19 18 22 10 17 15 5 4 3 7 8 5 7 5 1 4 2 2 3 1 1 2 2 3 1 3 3 3 2 5 2 4 6 10 9 5 5 3

GFSGBSN_925_spd_117.txt.gz
Wind_Speed
34 33 28 29 26 26 25 24 20 20 19 15 15 13 12 12 13 13 14 14 15 17 17 20 17 13 6 4 1 4 12 5 5 7 8 2 3 2 2 3 8 10 9 7 5 16 18
38 36 33 32 31 31 26 27 23 23 21 17 17 14 13 13 14 14 14 14 15 16 20 15 11 8 3 2 2 6 8 8 9 11 7 3 1 1 2 3 4 4 13 16 13 15 14
38 39 36 35 36 34 31 30 27 25 22 20 17 15 13 12 14 14 14 14 15 19 13 9 6 4 3 3 1 5 5 7 6 6 4 5 2 2 1 5 9 9 19 24 20 15 9
41 42 39 39 40 39 35 32 31 29 25 22 18 15 13 14 12 13 13 13 17 10 6 3 1 3 3 1 5 4 7 8 6 8 4 7 1 1 2 5 7 11 13 10 6 13 16
22 25 43 44 44 38 39 35 33 32 29 23 18 15 13 12 11 11 11 14 5 3 4 6 2 2 1 3 2 6 7 6 12 4 4 2 1 1 2 6 7 2 13 19 23 7 15
24 26 23 48 48 40 34 39 37 35 33 27 21 16 14 11 8 8 8 4 3 2 3 3 4 1 2 1 4 10 4 5 2 4 2 2 2 1 0 3 6 11 17 20 23 16 19
20 23 25 18 42 38 37 40 38 38 35 30 24 17 13 10 5 4 1 2 3 2 1 3 2 2 4 7 4 3 3 2 2 2 1 2 2 8 12 12 15 15 17 24 28 25 23
26 26 26 27 30 32 41 43 38 39 38 34 25 18 12 8 5 4 1 4 3 1 4 2 2 4 7 1 2 3 1 2 1 2 2 0 7 7 6 11 12 14 17 24 24 16 13
30 30 28 28 29 28 43 48 42 41 40 36 29 22 14 8 6 4 4 6 5 2 0 2 3 3 2 5 1 3 1 2 1 1 2 5 4 1 7 12 10 14 14 18 19 24 19
33 31 31 32 33 31 30 41 39 44 44 39 32 24 17 11 6 9 3 7 7 4 2 3 3 2 2 1 1 4 1 0 0 3 4 8 4 4 6 13 7 6 9 13 16 12 11
34 35 35 32 32 33 32 34 42 49 47 42 35 27 20 16 11 8 5 12 9 1 3 3 2 3 3 2 3 1 3 2 3 4 2 4 5 5 12 7 9 10 6 13 16 15 14
37 38 35 32 31 33 34 34 40 50 47 43 36 30 24 15 8 8 15 14 5 2 7 4 2 2 3 4 4 6 4 1 2 3 5 9 5 5 5 5 12 8 7 14 8 4 5
39 42 39 37 34 32 35 34 43 50 48 46 39 32 27 20 6 19 18 6 2 5 2 5 3 2 2 2 2 4 3 4 4 5 6 10 3 3 5 5 2 3 5 5 3 1 6
42 44 42 40 39 35 35 32 48 55 50 46 39 32 25 16 11 23 13 2 7 3 4 3 5 3 2 3 1 5 2 2 3 3 3 4 6 2 4 4 6 8 4 3 5 6 10
45 47 44 43 43 40 39 36 49 52 49 46 40 26 17 17 24 24 2 4 7 6 5 7 5 4 1 1 1 1 1 2 2 2 3 3 6 5 14 8 3 2 3 2 5 7 4
48 49 53 50 49 51 48 44 55 57 51 53 30 19 14 20 19 8 2 6 5 5 7 4 5 4 4 3 2 1 2 3 2 3 2 1 8 8 5 5 7 6 1 4 3 4 5
52 58 63 63 62 60 55 52 58 62 51 45 22 6 17 22 15 2 5 5 4 5 7 4 5 5 4 5 3 2 1 1 3 3 3 5 5 7 11 3 7 6 5 5 3 4 4
59 69 79 79 68 64 61 57 67 62 57 41 10 5 23 33 6 2 3 5 5 6 3 4 4 3 5 5 4 2 3 4 3 1 3 0 4 6 14 17 6 6 11 7 4 2 1
82 93 86 81 71 68 67 73 75 72 65 30 5 4 18 19 6 6 3 4 3 5 5 5 4 3 3 5 2 4 3 4 4 3 2 0 2 7 6 2 9 5 8 11 7 3 3
80 63 51 48 58 70 75 84 80 71 54 30 5 6 3 3 2 8 6 5 5 2 4 5 5 5 3 3 3 2 3 3 3 4 8 4 3 1 1 4 6 11 17 11 4 2 5
32 26 25 48 64 75 83 81 76 69 52 27 3 4 9 13 9 5 3 6 9 5 2 4 3 5 6 3 3 3 4 4 3 1 3 1 2 5 6 9 12 15 17 17 11 4 4
17 25 37 57 74 83 82 80 74 70 46 8 6 5 3 16 11 10 5 7 12 5 5 5 6 8 5 5 5 5 4 2 5 2 1 1 1 2 3 6 0 8 16 13 10 13 12
42 54 63 67 73 76 75 74 69 57 37 5 4 3 7 11 10 9 6 8 9 9 4 5 8 6 6 6 5 6 7 6 7 5 2 1 2 2 2 3 4 2 8 9 11 14 5
43 47 58 63 68 69 69 68 61 48 20 8 9 5 5 6 11 9 9 5 14 5 7 4 5 4 2 1 3 2 5 9 8 10 10 2 4 2 3 3 2 4 3 10 15 11 8
28 40 45 50 53 57 62 62 48 28 11 24 10 4 4 9 9 9 13 8 10 6 4 5 2 2 2 2 0 1 2 2 2 5 9 9 2 3 3 2 4 4 3 2 4 6 9
35 39 40 41 43 46 46 40 36 16 23 25 16 10 4 9 3 10 11 9 6 4 3 3 2 1 2 1 1 2 2 2 3 4 5 6 3 2 2 3 4 3 5 4 4 3 8
35 36 37 39 39 38 38 32 29 19 19 17 9 9 8 5 1 4 4 6 4 5 4 3 2 2 1 2 2 1 2 0 2 1 2 1 1 2 3 1 3 7 8 3 3 3 4
35 35 36 36 35 36 33 29 25 22 20 21 11 10 8 4 3 3 4 5 4 3 4 4 3 1 2 3 1 2 2 2 2 1 1 1 1 1 1 0 2 12 1 1 6 6 6
32 33 34 33 34 35 32 28 23 18 17 21 12 24 21 7 4 9 17 11 6 7 6 2 3 2 2 3 1 2 2 1 1 2 3 1 2 1 3 3 4 5 9 7 4 8 6

GFSGBSN_925_spd_120.txt.gz
Wind_Speed
34 33 30 26 28 27 25 24 21 18 18 15 14 12 11 8 8 7 7 10 14 16 17 20 17 13 6 5 2 2 8 5 4 6 9 7 5 4 5 6 9 15 9 8 9 15 18
37 36 33 31 30 29 28 27 25 23 20 16 17 15 12 10 10 8 7 8 12 15 18 16 12 9 3 8 2 3 2 4 6 7 7 7 4 4 6 6 7 7 14 16 17 18 20
34 38 36 33 34 31 31 31 27 26 23 18 19 17 15 11 10 8 8 9 10 15 14 11 6 3 5 3 1 2 2 5 4 5 6 5 5 6 4 8 4 12 20 18 15 4 3
14 14 34 36 36 33 30 33 31 29 27 22 20 19 17 12 9 7 8 10 11 10 8 6 3 2 1 5 2 2 4 6 4 6 5 2 2 5 5 5 11 12 11 6 3 10 13
21 19 16 21 38 37 31 32 36 32 31 27 24 20 17 14 8 6 6 9 8 2 1 2 3 4 3 3 3 4 4 5 8 2 2 2 4 3 4 8 10 6 10 16 14 3 5
14 14 19 21 20 30 36 40 35 34 33 30 26 22 16 13 8 5 4 2 2 2 2 3 2 4 4 2 1 2 1 4 1 3 4 4 3 6 6 6 8 14 17 17 18 4 21
16 15 16 18 19 16 31 40 37 27 29 33 27 23 18 12 9 5 1 2 5 5 6 4 1 4 1 1 2 3 1 1 1 3 4 2 6 7 6 5 10 13 16 20 19 20 16
16 19 20 18 19 21 15 19 37 28 30 31 28 26 20 11 9 7 6 5 4 3 7 5 4 6 3 1 3 3 1 3 3 4 3 5 8 1 3 5 9 13 17 18 18 6 18
20 21 21 22 21 20 21 23 20 34 33 33 30 30 22 11 7 7 7 5 3 1 5 4 5 5 3 5 2 2 2 1 3 5 6 8 2 2 7 10 11 14 14 16 20 21 20
22 21 22 23 22 22 22 22 23 23 42 38 37 33 24 15 6 9 6 9 7 2 5 7 8 6 6 3 5 1 0 3 4 4 5 8 1 5 9 12 11 14 7 13 17 16 11
25 24 23 24 26 27 26 25 23 24 40 47 40 35 30 25 7 6 3 14 9 1 5 10 6 8 5 4 3 5 1 3 5 4 4 3 6 9 11 7 5 7 14 15 20 18 15
28 26 25 22 29 28 24 21 20 20 30 43 42 35 28 25 9 9 12 12 4 5 9 8 8 9 8 4 4 1 3 3 2 5 9 16 8 8 5 6 8 14 16 19 13 8 7
31 30 29 28 28 31 28 24 19 20 22 43 43 42 38 25 12 20 17 5 5 8 6 9 9 8 8 5 6 2 4 4 1 4 4 7 11 5 7 6 3 5 12 6 4 7 7
34 33 32 32 30 32 33 27 23 21 23 43 41 39 30 24 19 24 13 3 13 8 9 5 8 11 7 6 5 3 6 5 3 1 5 5 5 9 7 2 6 13 5 5 6 9 15
38 36 36 35 34 33 35 31 25 23 22 44 39 23 20 19 26 25 6 9 7 13 10 14 10 9 7 6 4 5 5 4 3 2 2 3 5 2 7 11 7 3 7 5 7 16 7
40 40 38 38 38 34 37 35 25 24 27 49 25 13 11 21 32 21 5 14 19 1 9 14 12 7 11 11 9 7 7 7 6 2 2 1 6 3 2 7 13 12 5 6 3 5 5
44 43 43 42 42 40 42 35 34 29 43 50 15 5 14 23 23 7 9 12 15 6 8 7 7 6 6 6 7 6 6 6 4 4 4 2 3 2 9 2 10 6 6 6 4 7 5
46 47 47 47 47 45 46 38 37 30 50 33 10 5 27 33 8 5 11 12 4 12 5 3 5 6 8 7 6 4 8 2 5 0 2 2 3 5 10 6 5 8 9 10 6 5 3
48 50 52 52 53 55 56 51 45 38 68 21 5 4 23 20 8 12 11 12 6 11 9 7 4 4 3 6 4 5 6 2 5 1 1 3 3 5 5 7 3 4 14 15 13 3 5
51 52 53 57 61 65 62 58 53 51 64 31 5 6 4 4 6 13 18 21 11 6 7 4 5 5 6 5 4 8 5 4 5 4 2 1 3 4 4 3 4 7 14 14 4 4 4
47 56 65 80 78 80 81 77 70 65 70 31 4 6 12 13 15 18 20 17 17 9 7 9 5 8 9 5 7 6 6 5 4 4 5 3 4 4 5 10 1 11 12 14 11 2 5
48 61 72 73 63 65 72 80 79 82 76 28 7 6 14 14 19 19 22 20 22 13 16 17 9 14 11 6 5 10 7 5 3 6 2 4 1 2 7 13 7 5 11 7 8 11 12
42 51 48 42 40 39 52 79 82 94 75 19 6 15 12 19 20 18 21 22 22 16 2 12 13 10 11 8 4 0 3 2 2 2 2 1 1 2 2 8 6 4 5 6 10 13 3
36 16 13 19 28 50 69 80 89 84 61 25 22 18 6 13 18 18 22 19 21 16 11 10 14 11 6 5 1 1 5 8 8 9 9 3 2 2 4 6 6 6 6 10 12 8 7
31 20 25 37 50 63 73 77 70 59 38 39 31 12 5 13 16 13 15 12 15 12 13 14 6 5 7 5 4 5 4 4 4 5 9 9 1 3 3 2 6 5 4 3 1 5 6
26 32 54 61 64 64 61 54 46 39 36 32 26 16 8 13 12 19 18 20 13 8 8 5 6 5 4 4 4 6 5 6 6 7 6 7 9 4 3 5 6 5 1 1 3 4 4
27 33 48 56 56 55 50 46 47 45 37 33 20 24 15 5 4 14 8 13 9 9 6 7 6 4 3 5 5 4 4 1 6 6 6 5 5 8 5 5 4 5 6 2 5 5 7
33 35 39 44 43 42 40 44 39 35 30 27 11 21 8 5 5 5 5 7 7 9 9 9 6 2 4 6 4 3 3 3 4 2 3 4 3 3 3 4 4 8 3 3 8 9 9
32 38 37 32 33 36 33 32 31 26 28 31 9 13 17 7 6 14 16 10 5 7 8 6 2 7 4 3 3 3 3 4 6 4 3 3 2 0 3 3 5 5 8 6 9 10 9

GFSGBSN_925_spd_123.txt.gz
Wind_Speed
30 30 27 28 27 27 24 22 24 20 19 17 15 14 12 11 11 9 9 11 12 13 15 17 15 12 5 6 1 2 4 4 3 5 5 6 6 6 9 7 10 16 13 8 11 14 17
32 31 31 29 30 29 29 26 25 23 22 20 19 16 14 12 13 10 9 13 13 13 17 16 13 8 6 10 3 1 2 4 5 7 7 6 6 8 10 9 9 10 12 16 17 19 19
12 26 31 30 29 31 32 29 26 25 24 22 20 19 16 13 13 8 10 12 13 15 13 13 9 6 8 3 4 2 2 6 7 7 8 6 8 8 7 10 5 10 16 15 14 4 10
14 12 10 23 33 32 29 29 30 27 27 24 22 20 18 14 14 9 10 12 15 14 11 8 7 7 6 5 4 5 5 9 6 7 7 6 7 10 11 8 14 15 13 9 2 6 8
8 10 13 13 13 27 33 31 30 26 28 28 25 22 18 15 13 10 10 11 13 10 8 6 5 7 7 8 9 3 5 6 7 7 5 5 8 10 8 12 12 11 9 15 12 6 7
11 11 12 12 17 15 13 26 26 26 27 31 26 23 20 15 12 10 8 9 12 8 6 8 8 6 6 9 6 4 4 5 5 5 7 8 6 8 10 9 9 12 16 15 14 12 16
13 13 12 11 12 15 16 16 24 27 27 30 23 24 21 16 12 7 5 6 7 7 9 10 4 8 4 3 5 8 5 6 7 9 12 9 9 11 10 6 9 12 16 17 15 13 11
13 12 13 13 13 14 14 14 12 23 29 28 21 22 22 17 11 7 4 6 7 4 9 14 13 12 7 4 7 9 6 7 6 10 4 8 13 2 1 5 10 14 17 19 15 5 14
15 15 17 16 15 14 14 14 13 10 20 29 21 22 22 16 9 8 7 6 7 7 7 11 14 15 11 12 10 8 9 4 9 11 12 13 6 3 6 10 13 15 15 18 18 18 18
17 16 16 16 16 16 15 13 13 13 14 23 28 25 24 17 7 7 5 8 3 7 6 11 9 8 9 7 7 6 6 6 7 9 7 11 4 7 9 12 12 15 11 13 18 15 14
19 20 19 19 17 16 17 17 16 16 16 16 36 31 30 24 8 6 7 7 6 4 5 8 12 14 14 11 5 10 4 5 9 9 6 2 8 10 12 11 4 10 11 16 19 19 18
22 23 23 21 19 15 18 19 17 15 14 17 35 38 34 16 10 5 12 16 15 4 8 8 9 12 15 13 9 5 7 5 4 8 13 19 9 7 11 3 9 12 14 19 20 13 12
26 25 25 23 22 19 17 20 18 17 10 10 32 41 38 21 7 17 19 10 4 6 2 8 9 15 18 11 11 9 10 10 9 7 12 12 16 10 8 10 11 9 12 8 8 6 14
28 28 27 26 25 24 21 19 21 17 12 8 35 37 22 16 18 29 20 2 6 15 20 2 7 13 16 11 11 10 9 11 8 9 8 6 5 13 11 8 6 10 9 7 8 11 18
29 29 29 29 28 27 24 20 20 19 13 9 33 22 13 16 27 29 7 4 10 17 15 9 8 11 13 12 6 11 14 11 7 7 5 3 4 6 6 8 7 3 9 6 11 19 14
31 30 32 31 30 30 27 22 19 21 17 17 25 13 7 22 29 21 3 8 8 12 10 12 14 14 15 15 10 11 12 9 9 6 3 1 4 6 4 6 13 11 6 5 4 5 9
33 34 34 35 33 32 30 25 21 23 17 35 16 5 13 28 24 2 6 10 10 12 16 16 17 11 10 9 14 12 6 8 7 10 5 3 2 6 6 11 4 7 5 4 10 9 6
37 36 37 36 37 35 33 29 26 28 21 31 8 5 23 37 4 4 10 7 9 13 12 5 8 7 10 8 11 1 7 4 7 5 5 2 4 6 7 6 3 5 6 10 5 8 6
36 38 39 38 38 39 37 34 31 32 36 19 6 3 18 24 10 13 11 14 12 15 19 13 8 6 7 4 5 5 6 4 6 6 2 6 5 6 11 9 5 3 7 10 13 12 15
43 42 42 43 43 42 40 40 38 38 47 31 4 5 3 4 12 19 22 15 16 20 17 9 9 8 8 8 7 9 10 8 8 7 5 2 6 8 7 6 2 3 8 9 7 4 3
44 46 49 49 47 47 45 45 46 46 54 34 5 8 12 9 13 13 21 13 20 13 12 12 6 9 11 7 11 7 11 10 9 6 6 4 4 7 11 3 3 3 2 6 6 8 4
45 53 51 50 50 48 48 48 51 54 55 32 8 12 14 11 24 22 21 20 27 23 18 18 7 15 13 7 10 11 13 10 7 9 11 4 1 2 5 13 11 2 1 5 2 5 8
51 50 51 52 53 54 56 60 61 64 62 18 31 30 13 15 23 20 22 24 26 22 18 17 15 14 17 14 11 1 8 5 1 8 9 6 3 3 4 7 6 9 7 5 5 4 3
43 48 50 57 63 70 72 73 75 79 86 32 32 21 11 13 20 24 26 25 23 23 12 12 18 17 8 10 8 3 4 7 9 10 8 5 3 3 5 3 5 5 7 7 9 5 7
37 41 54 67 73 72 69 71 84 92 94 58 32 21 13 11 18 23 24 25 18 16 18 18 15 8 12 10 6 6 5 6 11 12 12 10 4 3 4 7 5 6 9 6 4 4 2
30 47 29 32 47 54 54 57 64 96 95 59 39 33 12 12 16 23 24 24 15 19 15 9 9 9 10 5 5 8 7 7 7 8 8 9 8 4 4 6 4 6 5 2 1 6 4
19 6 24 14 12 24 38 47 70 94 70 44 27 31 16 7 15 21 20 18 13 13 9 13 10 6 7 7 7 6 7 4 8 10 7 7 8 11 9 8 6 3 3 3 6 5 7
13 24 39 39 45 52 57 65 74 67 49 44 19 22 18 4 7 12 13 16 11 13 9 13 7 4 6 8 7 4 4 6 3 1 9 10 7 5 6 6 10 5 4 3 8 11 9
23 30 39 42 46 53 58 60 57 52 45 43 20 24 27 6 6 16 15 7 7 16 8 14 2 16 6 7 4 3 3 3 8 5 5 4 3 2 5 4 5 3 7 9 8 10 9

GFSGBSN_925_spd_126.txt.gz
Wind_Speed
29 31 28 26 24 24 22 22 19 20 18 17 14 15 13 13 13 12 12 13 15 16 17 18 18 16 10 7 3 5 3 4 4 6 6 8 11 8 11 12 12 16 16 14 12 13 14
13 23 30 29 26 28 27 24 23 23 20 20 18 17 16 14 13 11 12 13 15 17 18 18 16 14 6 13 3 3 2 5 6 6 8 9 6 11 10 12 10 15 13 16 18 18 17
13 12 16 30 29 28 25 26 25 25 23 21 20 19 17 15 13 11 13 14 16 17 19 16 12 8 11 12 1 2 3 4 6 8 8 9 7 7 10 12 8 9 15 18 19 11 5
10 13 11 9 22 28 26 27 27 25 26 22 22 21 18 15 14 13 14 13 16 18 17 14 10 7 7 3 4 5 7 9 8 7 9 9 8 11 13 12 16 15 16 13 11 7 5
7 8 9 12 10 10 20 27 27 26 25 23 21 21 19 15 13 13 14 14 16 18 15 13 9 8 9 3 6 7 5 8 8 12 8 8 8 11 12 12 13 15 12 10 13 13 4
8 8 8 8 10 13 11 10 20 23 24 20 19 21 20 16 13 12 12 13 18 19 11 9 14 8 9 5 6 5 7 6 7 8 9 9 7 9 10 10 11 9 11 12 15 13 14
9 11 9 7 7 9 12 12 11 15 17 20 19 23 17 17 12 9 7 9 6 4 7 8 9 12 5 7 3 10 11 8 12 10 12 15 10 11 17 4 7 10 12 15 16 15 12
11 11 10 8 8 8 9 9 10 10 13 18 18 22 16 16 11 5 1 2 9 4 10 18 21 21 22 10 9 13 8 7 12 13 17 11 14 16 7 3 7 12 15 17 16 13 13
13 13 11 11 10 10 9 9 9 8 6 11 17 17 16 13 8 5 6 4 3 5 6 10 20 20 18 14 14 19 15 12 15 15 16 16 17 5 5 12 13 15 16 15 17 14 16
16 14 13 11 10 9 9 9 8 7 6 6 14 19 18 15 4 8 6 8 4 2 5 10 7 4 13 11 12 24 13 11 13 15 16 15 15 18 13 14 14 15 14 12 14 14 12
17 16 14 14 13 11 9 9 8 10 9 7 8 22 21 13 4 5 6 10 8 3 6 5 9 8 6 11 2 9 6 9 14 16 7 10 8 7 12 14 14 13 11 14 17 17 18
19 19 18 17 16 13 10 8 9 9 8 7 9 21 23 15 8 10 10 13 3 4 10 4 5 6 10 15 13 6 6 9 9 12 17 20 19 9 10 13 6 11 14 17 19 16 13
22 21 20 19 17 15 12 9 9 8 7 6 10 24 26 19 8 20 19 6 2 5 3 8 7 8 13 14 16 13 10 13 9 6 13 17 21 18 12 13 14 16 13 7 5 6 10
25 24 23 21 20 17 15 12 10 10 7 8 6 26 16 11 12 22 13 3 6 11 16 4 5 9 15 13 13 14 14 14 18 14 12 11 7 17 14 14 9 7 6 6 8 9 15
23 24 25 25 22 20 17 15 10 9 8 4 19 17 11 15 22 24 2 4 6 12 14 16 13 15 16 17 9 14 15 16 16 12 7 8 6 4 9 9 5 2 6 4 9 14 11
23 24 24 23 22 21 18 17 12 9 11 9 15 10 6 22 29 14 1 8 13 16 16 15 13 10 13 18 10 7 10 6 18 4 3 5 6 10 9 6 14 13 9 5 1 4 8
28 26 24 24 25 23 22 18 16 12 14 16 11 4 12 26 23 3 6 11 19 19 18 12 12 7 10 6 10 9 9 3 4 6 3 6 1 6 8 10 15 8 11 3 2 6 5
28 28 27 28 25 25 24 22 21 16 19 25 8 4 24 32 3 3 13 11 6 15 14 16 10 14 17 15 16 3 4 12 7 2 5 6 3 7 15 5 5 3 3 3 3 5 4
33 32 30 29 28 27 25 26 25 22 28 15 4 3 22 26 7 11 16 17 20 18 15 16 16 11 2 3 2 6 6 3 8 5 1 2 5 7 10 9 2 5 5 3 6 6 9
33 33 32 29 27 28 28 28 30 28 32 24 4 4 2 6 6 16 22 20 22 14 21 18 10 10 8 5 10 4 8 5 7 6 4 2 7 12 9 6 3 4 2 4 4 3 5
35 35 34 34 32 33 31 31 32 33 36 24 5 7 9 8 13 12 9 10 22 23 20 20 20 19 15 8 12 10 13 11 11 10 2 5 4 10 17 16 8 3 3 5 4 7 5
37 38 38 37 36 36 36 35 38 38 39 31 6 8 13 12 19 22 19 19 22 20 17 21 19 16 17 14 9 8 10 11 7 13 8 11 2 2 12 16 13 7 6 9 6 2 2
38 39 39 40 40 40 40 41 44 45 46 14 21 22 12 14 18 18 22 28 25 18 17 19 19 18 18 15 6 10 11 10 6 10 11 10 3 3 11 7 10 9 14 9 6 6 6
38 38 39 43 45 46 45 47 50 52 55 36 24 18 13 14 16 20 21 28 26 24 21 21 17 16 5 8 4 2 3 4 6 8 7 5 5 3 7 3 5 2 5 10 8 5 6
39 41 44 47 46 46 49 52 52 56 60 49 28 26 14 16 18 23 25 22 24 19 20 15 13 10 8 9 4 4 5 7 13 15 13 9 5 3 4 8 2 4 8 9 8 7 6
40 44 51 51 51 55 57 60 61 64 63 58 50 36 16 13 20 21 21 23 16 14 7 13 8 18 15 6 7 12 7 8 8 7 17 14 12 6 5 10 7 4 7 5 5 5 9
42 48 48 56 60 62 65 66 67 69 70 66 46 43 22 16 16 16 17 18 14 14 10 12 12 7 10 6 8 8 9 10 8 12 6 6 6 10 9 8 3 5 4 3 5 3 6
43 40 44 51 52 56 63 71 80 79 80 76 51 54 32 12 11 18 19 14 13 14 8 12 6 4 5 7 7 5 5 6 2 7 11 10 8 7 9 9 10 3 3 3 5 7 8
29 32 13 6 8 38 55 64 72 80 85 80 29 54 44 10 1 2 8 15 20 14 6 10 7 13 6 6 5 6 2 1 6 4 8 4 2 2 4 3 4 3 4 6 7 10 9

GFSGBSN_925_spd_129.txt.gz
Wind_Speed
20 22 24 23 22 22 21 20 19 17 17 14 14 12 11 12 12 11 11 12 13 16 18 19 21 20 14 5 6 3 2 3 5 6 8 5 7 5 6 6 10 5 6 8 8 7 6
14 14 22 27 27 25 24 22 23 20 19 17 17 14 12 13 14 13 13 13 14 15 16 19 18 16 4 5 1 1 2 5 10 6 14 9 5 6 6 6 5 7 9 9 7 11 9
14 13 11 15 24 26 27 24 24 22 20 20 18 16 14 14 15 14 14 14 15 15 16 16 14 9 5 11 2 2 2 3 5 4 6 11 12 5 8 7 6 7 8 10 16 13 9
8 11 13 9 9 22 25 24 21 19 20 21 19 17 15 16 16 15 15 16 17 16 17 13 12 6 6 12 7 7 6 12 12 8 8 7 5 4 3 6 7 3 4 3 11 8 6
8 8 8 10 10 6 9 18 21 21 19 18 18 17 14 16 15 15 16 18 17 18 18 13 9 5 7 4 5 10 8 5 11 11 12 6 3 4 5 3 6 4 5 6 9 8 2
5 7 5 7 9 9 8 6 6 14 17 17 14 13 12 13 14 12 15 18 14 17 6 2 11 6 6 5 9 6 4 5 3 7 6 5 3 3 3 3 5 3 2 5 4 7 10
8 6 7 6 5 4 8 10 9 7 9 13 12 9 13 10 11 8 10 6 4 1 2 6 8 8 16 11 10 7 11 8 6 4 4 6 3 7 12 12 15 4 5 6 6 9 8
9 8 7 7 5 4 4 5 6 7 9 9 11 14 12 10 8 4 3 3 3 3 6 14 20 21 33 23 6 8 12 4 4 7 7 6 11 16 15 14 3 5 7 8 8 14 4
10 10 8 6 6 5 4 3 3 3 4 4 9 13 13 9 6 3 2 3 5 3 4 7 12 9 7 20 16 9 6 7 5 8 10 12 10 16 11 6 7 6 6 9 12 4 5
12 11 10 8 5 4 4 4 3 1 1 1 7 11 14 10 5 5 3 4 4 2 3 6 8 2 4 6 4 11 23 9 7 11 12 12 17 19 15 16 8 6 9 9 8 7 3
14 14 12 10 7 5 4 3 4 0 2 2 7 13 13 13 8 5 5 9 5 1 3 3 3 4 4 6 3 3 8 4 3 11 8 8 14 13 5 6 7 9 3 5 6 9 8
16 15 13 12 10 8 6 3 5 1 2 2 7 12 13 12 9 7 9 9 1 4 8 4 4 4 3 4 3 3 3 5 3 5 11 17 15 12 6 7 3 6 5 10 13 8 4
17 17 16 13 11 9 8 4 5 4 3 4 6 13 17 10 7 15 13 6 2 5 3 3 4 5 6 6 8 6 7 5 3 2 5 11 11 18 14 10 2 6 2 4 3 2 5
18 18 18 16 15 12 9 7 5 3 5 2 5 15 15 12 16 23 10 3 6 7 9 7 13 6 7 5 7 9 9 5 7 10 9 7 8 9 8 13 4 5 11 4 4 1 5
21 21 19 17 15 13 10 9 7 5 6 3 16 17 14 13 25 21 2 3 6 7 4 6 10 6 5 6 7 5 8 8 9 10 10 2 6 11 13 5 6 3 3 6 3 4 3
24 22 21 17 17 15 15 11 10 7 8 10 14 7 7 19 24 8 2 7 6 6 8 9 2 5 5 5 6 6 2 1 10 8 4 3 5 8 9 3 6 5 4 3 3 2 4
26 24 20 19 18 18 15 12 12 12 14 15 11 3 11 20 18 2 5 7 6 9 10 4 5 6 9 2 4 4 3 3 10 6 6 3 4 6 9 5 7 5 5 1 2 1 3
28 27 26 23 21 18 19 16 15 17 21 20 7 3 17 27 3 2 7 4 10 16 11 9 10 9 6 7 4 2 5 2 10 9 3 4 3 4 9 15 13 13 6 5 3 3 1
30 28 27 28 25 22 22 19 21 22 28 15 4 2 18 19 7 9 4 8 12 11 9 3 6 7 3 1 1 6 5 3 6 5 2 2 3 4 7 2 2 3 5 5 4 3 4
33 33 31 27 25 24 24 26 25 27 30 17 4 3 2 7 4 5 15 15 16 6 14 14 12 7 4 2 1 3 2 1 4 3 3 3 2 5 2 4 3 4 7 6 4 2 3
34 35 34 32 27 25 25 27 28 30 33 22 2 5 6 7 12 9 6 7 19 13 12 8 7 12 6 3 3 5 4 2 2 5 1 0 4 7 7 7 9 11 7 4 4 5 5
35 37 37 35 32 31 28 30 31 31 34 21 5 4 4 3 15 17 19 15 17 10 11 14 18 13 11 10 8 5 7 5 4 8 8 5 5 1 5 8 11 13 10 8 7 5 2
36 37 36 36 35 34 32 33 34 34 37 8 19 12 2 7 12 11 17 19 14 11 13 21 13 10 11 12 6 2 3 3 5 7 9 4 4 2 4 4 7 6 9 9 6 5 6
34 36 36 37 36 36 37 37 37 37 41 21 14 8 4 7 11 17 12 16 20 23 18 9 13 9 5 9 7 4 5 8 11 13 7 5 8 2 3 6 3 2 4 6 10 8 10
37 38 38 38 38 39 40 41 40 42 43 38 21 15 6 11 13 12 18 14 17 19 22 16 9 4 9 6 3 2 2 4 8 8 9 6 4 2 2 2 3 1 2 1 5 5 8
38 40 40 39 39 40 41 42 42 45 47 42 39 28 9 8 16 18 14 20 11 8 8 11 5 10 7 3 1 6 6 7 6 5 18 10 6 3 1 3 3 1 6 10 6 2 6
38 39 40 40 40 42 43 44 45 48 52 47 34 40 16 9 13 7 13 10 10 6 3 4 5 1 5 3 4 4 5 7 4 7 5 9 4 10 6 4 1 2 3 5 2 3 4
39 40 42 43 45 46 47 48 50 51 55 50 46 37 32 8 7 14 20 9 6 13 5 6 4 3 6 5 5 4 4 5 8 8 7 10 8 4 4 3 7 3 2 3 2 8 11
38 40 44 46 50 51 52 51 52 55 56 56 27 41 35 12 2 20 21 20 21 25 6 9 5 8 5 4 4 3 4 2 2 2 9 4 4 4 2 2 3 3 3 7 9 9 8

GFSGBSN_925_spd_132.txt.gz
Wind_Speed
15 19 24 24 23 22 21 19 19 17 15 14 15 13 8 8 9 9 9 10 12 13 16 18 20 20 10 5 5 1 3 4 6 9 9 5 6 5 4 6 8 4 3 7 6 5 4
17 17 20 22 24 23 24 22 22 20 18 16 16 16 13 10 11 12 11 10 12 13 14 16 17 16 5 4 2 1 4 5 6 4 7 6 2 5 3 4 2 5 8 9 6 9 4
19 19 18 14 18 25 26 26 23 22 20 19 19 17 15 13 11 14 13 12 12 14 13 15 13 10 1 10 1 5 1 4 5 7 2 5 3 5 4 7 4 8 7 9 11 7 5
16 16 17 16 14 13 23 24 22 24 22 18 18 18 16 14 13 14 15 14 14 15 15 11 10 4 6 6 13 8 8 9 10 13 10 7 0 2 4 4 8 5 3 4 6 5 5
13 12 10 12 12 12 10 17 21 21 18 16 14 15 14 12 12 14 14 15 15 16 15 11 3 3 8 6 7 12 12 5 8 8 9 9 1 2 3 1 4 3 3 4 9 5 3
9 9 8 8 9 10 10 9 9 14 17 16 14 12 11 10 11 10 11 13 14 11 1 3 2 3 4 3 5 6 10 6 3 6 7 2 3 2 2 3 4 3 3 4 5 6 3
10 9 8 7 6 6 8 10 9 7 9 12 13 10 10 10 7 7 7 1 2 2 2 6 4 4 9 13 6 10 11 3 2 1 3 3 2 7 9 8 8 7 6 5 5 8 3
13 10 9 9 7 6 5 6 6 8 10 10 13 14 10 8 6 4 2 2 3 1 7 11 16 14 23 5 4 7 9 4 4 5 3 4 7 13 9 11 9 11 7 7 5 5 4
13 12 10 7 8 7 5 4 5 6 6 9 13 14 13 10 7 5 3 3 3 1 2 7 6 3 5 12 8 10 11 6 5 5 6 8 7 12 13 12 12 6 5 4 7 3 4
15 12 12 10 6 6 5 6 4 3 4 5 13 16 15 15 8 7 3 2 3 1 3 6 2 4 3 6 2 2 14 7 5 9 10 8 9 5 8 9 8 12 7 7 4 5 2
16 15 13 12 9 6 5 5 6 3 3 6 13 15 17 16 10 7 4 6 4 2 2 3 3 3 3 5 3 5 4 4 4 4 1 7 11 13 11 5 4 4 2 2 2 4 3
17 15 13 12 10 9 5 6 9 4 3 6 11 14 17 11 10 8 9 7 3 5 6 2 3 3 3 2 2 2 4 5 1 2 6 11 6 7 9 11 4 3 2 6 3 2 3
18 18 16 14 12 11 8 7 10 7 7 9 11 13 14 14 5 12 9 3 4 4 4 3 2 3 5 5 2 4 4 2 2 4 4 7 5 5 5 9 6 4 5 3 4 1 5
18 17 15 15 13 11 7 9 9 9 11 9 8 12 13 9 10 14 7 4 7 7 6 3 4 0 6 6 6 5 3 4 6 4 2 4 8 2 6 6 6 5 7 4 5 3 4
20 17 15 15 14 14 11 10 10 9 12 9 14 16 9 11 15 15 3 3 6 5 3 4 5 3 2 4 5 5 7 7 8 10 7 3 6 8 5 6 6 3 4 7 5 0 2
22 19 18 16 16 15 13 12 12 10 12 13 15 8 6 15 17 8 1 9 5 4 3 3 3 2 2 4 2 4 5 1 2 2 5 1 8 3 6 6 5 4 3 3 2 1 4
24 21 19 19 18 17 15 15 16 14 16 19 16 3 8 18 12 2 5 5 3 7 3 2 3 4 2 1 3 3 2 2 2 3 7 2 3 5 7 1 7 4 2 1 3 4 3
27 24 21 21 20 17 18 18 18 18 21 19 7 2 14 22 3 2 4 5 2 4 2 2 3 5 4 3 4 2 6 3 3 3 3 1 1 5 11 15 13 8 10 4 3 4 1
25 26 24 26 23 20 19 21 20 21 28 15 3 2 12 7 6 5 2 3 4 2 0 1 3 6 3 7 1 5 4 3 3 2 6 5 2 4 6 2 4 5 8 8 3 2 4
23 24 26 28 25 24 25 23 24 24 29 15 4 4 1 3 1 6 6 6 5 4 7 6 5 4 2 3 4 3 1 3 1 2 6 3 3 5 4 3 2 5 6 1 4 0 2
25 26 27 29 28 29 29 27 27 27 31 17 2 5 5 7 13 10 6 4 8 7 6 8 4 9 5 6 5 5 5 3 1 6 3 4 5 3 6 8 9 13 15 11 10 10 6
27 27 28 30 32 34 31 30 34 31 31 15 4 4 1 2 11 16 11 8 14 6 7 7 10 8 8 11 8 9 6 5 6 5 7 4 4 2 17 11 11 15 16 15 15 5 3
31 30 31 32 35 39 34 31 34 37 35 8 10 5 5 7 7 13 17 16 6 8 9 16 11 6 13 16 9 6 5 4 4 4 7 5 3 2 10 11 7 7 10 11 4 4 6
34 35 34 36 37 41 40 35 35 34 39 16 12 6 3 4 10 14 12 15 16 16 15 4 10 11 5 3 3 3 2 2 3 8 8 5 6 3 3 3 4 6 4 6 10 7 6
36 36 37 37 40 44 42 40 35 35 37 30 13 11 4 5 7 12 13 6 14 17 17 16 17 3 7 4 3 2 4 5 4 10 9 9 4 4 5 5 4 3 1 2 4 4 7
36 35 36 38 39 41 42 40 42 38 37 31 28 16 4 5 13 8 8 16 7 5 3 7 6 8 4 3 2 5 4 4 4 4 11 7 7 6 1 3 3 3 2 5 3 3 9
37 36 36 37 39 40 41 40 42 39 38 31 18 31 6 5 5 7 9 8 3 4 1 1 4 2 3 2 2 4 4 6 5 5 2 7 5 14 7 4 5 2 2 5 2 3 4
37 36 37 39 40 42 43 44 44 44 42 35 31 27 25 2 2 13 17 8 2 6 5 3 3 2 2 4 3 4 4 5 5 9 4 8 6 6 4 3 9 2 1 5 1 6 4
37 37 38 40 41 43 44 45 46 47 45 38 19 30 26 7 3 20 24 23 21 21 5 2 3 5 5 3 4 4 3 3 4 7 2 6 5 4 3 4 2 2 2 1 4 5 4